PWSweather.com
Personal Weather Stations
Station Observations
EI4HQ
Cork Harbour, CobhIE

Cork HarbourCobhIE

Lat: 51.85, Lon: -8.29

Elevation: 252

Station Type: Davis Vantage Pro2

http://www.corkharbourweather.ie

High Low Average
Temperature 51.6°F10.9°C 34.2°F1.2°C 45.3°F7.4°C
Dew Point 45.5°F7.5°C 28.4°F-2.0°C 39.6°F4.2°C
Winds 21.0 mph 33.8 kmh 3.0 mph 4.8 kmh 12.0 mph WNW19.3 kmh WNW
Wind Gusts 33.0 mph53.1 kmh 7.0 mph11.3 kmh 20.0 mph32.2 kmh
Humidity 94% 58% 81%
Pressure 29.82 in1009.8 mb 29.11 in985.8 mb -
Precipitation 0.15 in3.8 mm - -
Hour Temp Dew Point Humidity Winds Wind Gusts Pressure Precip Precip Rate Daily Precip Total
12:00 AM 47.1°F8.4°C 45.5°F7.5°C 94% 4.0 mph NE6.4 kmh NE 8.0 mph12.9 kmh 29.11 in985.8 mb 0.00 in0.0 mm 0.00 in0.0 mm 0.00 in0.0 mm
12:03 AM 47.1°F8.4°C 45.5°F7.5°C 94% 3.0 mph NE4.8 kmh NE 8.0 mph12.9 kmh 29.11 in985.8 mb 0.00 in0.0 mm 0.00 in0.0 mm 0.00 in0.0 mm
12:06 AM 47.1°F8.4°C 45.5°F7.5°C 94% 4.0 mph NE6.4 kmh NE 10.0 mph16.1 kmh 29.11 in985.8 mb 0.00 in0.0 mm 0.00 in0.0 mm 0.00 in0.0 mm
12:09 AM 47.1°F8.4°C 45.5°F7.5°C 94% 4.0 mph NE6.4 kmh NE 10.0 mph16.1 kmh 29.11 in985.8 mb 0.00 in0.0 mm 0.00 in0.0 mm 0.00 in0.0 mm
12:12 AM 47.1°F8.4°C 45.5°F7.5°C 94% 5.0 mph NE8.0 kmh NE 10.0 mph16.1 kmh 29.11 in985.8 mb 0.00 in0.0 mm 0.00 in0.0 mm 0.00 in0.0 mm
12:15 AM 47.1°F8.4°C 45.5°F7.5°C 94% 5.0 mph NE8.0 kmh NE 10.0 mph16.1 kmh 29.11 in985.8 mb 0.00 in0.0 mm 0.00 in0.0 mm 0.00 in0.0 mm
12:18 AM 47.1°F8.4°C 45.5°F7.5°C 94% 6.0 mph NE9.7 kmh NE 12.0 mph19.3 kmh 29.11 in985.8 mb 0.00 in0.0 mm 0.00 in0.0 mm 0.00 in0.0 mm
12:21 AM 47.1°F8.4°C 45.5°F7.5°C 94% 6.0 mph NE9.7 kmh NE 12.0 mph19.3 kmh 29.11 in985.8 mb 0.00 in0.0 mm 0.00 in0.0 mm 0.00 in0.0 mm
12:24 AM 47.1°F8.4°C 45.5°F7.5°C 94% 6.0 mph NE9.7 kmh NE 12.0 mph19.3 kmh 29.11 in985.8 mb 0.00 in0.0 mm 0.00 in0.0 mm 0.00 in0.0 mm
12:27 AM 47.1°F8.4°C 45.5°F7.5°C 94% 6.0 mph NE9.7 kmh NE 12.0 mph19.3 kmh 29.11 in985.8 mb 0.00 in0.0 mm 0.00 in0.0 mm 0.00 in0.0 mm
12:30 AM 47.1°F8.4°C 45.5°F7.5°C 94% 5.0 mph NE8.0 kmh NE 11.0 mph17.7 kmh 29.11 in985.8 mb 0.00 in0.0 mm 0.00 in0.0 mm 0.00 in0.0 mm
12:33 AM 47.1°F8.4°C 45.5°F7.5°C 94% 5.0 mph NE8.0 kmh NE 11.0 mph17.7 kmh 29.11 in985.8 mb 0.00 in0.0 mm 0.00 in0.0 mm 0.00 in0.0 mm
12:36 AM 47.1°F8.4°C 45.5°F7.5°C 94% 5.0 mph NE8.0 kmh NE 11.0 mph17.7 kmh 29.11 in985.8 mb 0.00 in0.0 mm 0.00 in0.0 mm 0.00 in0.0 mm
12:39 AM 47.1°F8.4°C 45.5°F7.5°C 94% 4.0 mph NE6.4 kmh NE 11.0 mph17.7 kmh 29.11 in985.8 mb 0.00 in0.0 mm 0.00 in0.0 mm 0.00 in0.0 mm
12:42 AM 47.1°F8.4°C 45.5°F7.5°C 94% 5.0 mph NE8.0 kmh NE 11.0 mph17.7 kmh 29.11 in985.8 mb 0.00 in0.0 mm 0.00 in0.0 mm 0.00 in0.0 mm
12:45 AM 47.1°F8.4°C 45.5°F7.5°C 94% 5.0 mph NE8.0 kmh NE 9.0 mph14.5 kmh 29.11 in985.8 mb 0.00 in0.0 mm 0.00 in0.0 mm 0.00 in0.0 mm
12:48 AM 47.1°F8.4°C 45.5°F7.5°C 94% 5.0 mph NE8.0 kmh NE 9.0 mph14.5 kmh 29.11 in985.8 mb 0.00 in0.0 mm 0.00 in0.0 mm 0.00 in0.0 mm
12:51 AM 47.1°F8.4°C 45.5°F7.5°C 94% 4.0 mph NNE6.4 kmh NNE 9.0 mph14.5 kmh 29.11 in985.8 mb 0.00 in0.0 mm 0.00 in0.0 mm 0.00 in0.0 mm
12:54 AM 47.1°F8.4°C 45.5°F7.5°C 94% 4.0 mph NNE6.4 kmh NNE 9.0 mph14.5 kmh 29.11 in985.8 mb 0.00 in0.0 mm 0.00 in0.0 mm 0.00 in0.0 mm
12:57 AM 47.1°F8.4°C 45.5°F7.5°C 94% 4.0 mph NNE6.4 kmh NNE 7.0 mph11.3 kmh 29.11 in985.8 mb 0.00 in0.0 mm 0.00 in0.0 mm 0.00 in0.0 mm
01:00 AM 47.1°F8.4°C 45.5°F7.5°C 94% 4.0 mph NNE6.4 kmh NNE 9.0 mph14.5 kmh 29.11 in985.8 mb 0.00 in0.0 mm 0.00 in0.0 mm 0.00 in0.0 mm
01:03 AM 47.1°F8.4°C 45.5°F7.5°C 94% 4.0 mph NNE6.4 kmh NNE 9.0 mph14.5 kmh 29.11 in985.8 mb 0.00 in0.0 mm 0.00 in0.0 mm 0.00 in0.0 mm
01:06 AM 47.1°F8.4°C 45.5°F7.5°C 94% 5.0 mph NNE8.0 kmh NNE 9.0 mph14.5 kmh 29.11 in985.8 mb 0.00 in0.0 mm 0.00 in0.0 mm 0.00 in0.0 mm
01:09 AM 47.1°F8.4°C 45.5°F7.5°C 94% 5.0 mph NNE8.0 kmh NNE 9.0 mph14.5 kmh 29.11 in985.8 mb 0.00 in0.0 mm 0.00 in0.0 mm 0.00 in0.0 mm
01:12 AM 47.1°F8.4°C 45.5°F7.5°C 94% 5.0 mph NNE8.0 kmh NNE 10.0 mph16.1 kmh 29.11 in985.8 mb 0.00 in0.0 mm 0.00 in0.0 mm 0.00 in0.0 mm
01:15 AM 47.1°F8.4°C 45.5°F7.5°C 94% 6.0 mph NNE9.7 kmh NNE 10.0 mph16.1 kmh 29.11 in985.8 mb 0.00 in0.0 mm 0.00 in0.0 mm 0.00 in0.0 mm
01:18 AM 47.1°F8.4°C 45.5°F7.5°C 94% 5.0 mph NNE8.0 kmh NNE 10.0 mph16.1 kmh 29.11 in985.8 mb 0.00 in0.0 mm 0.00 in0.0 mm 0.00 in0.0 mm
01:21 AM 47.1°F8.4°C 45.5°F7.5°C 94% 6.0 mph NNE9.7 kmh NNE 12.0 mph19.3 kmh 29.11 in985.8 mb 0.00 in0.0 mm 0.00 in0.0 mm 0.00 in0.0 mm
01:24 AM 47.1°F8.4°C 45.5°F7.5°C 94% 6.0 mph NNE9.7 kmh NNE 12.0 mph19.3 kmh 29.11 in985.8 mb 0.00 in0.0 mm 0.00 in0.0 mm 0.00 in0.0 mm
01:27 AM 47.1°F8.4°C 45.5°F7.5°C 94% 6.0 mph N9.7 kmh N 12.0 mph19.3 kmh 29.11 in985.8 mb 0.00 in0.0 mm 0.00 in0.0 mm 0.00 in0.0 mm
01:30 AM 47.1°F8.4°C 45.5°F7.5°C 94% 7.0 mph N11.3 kmh N 12.0 mph19.3 kmh 29.11 in985.8 mb 0.00 in0.0 mm 0.00 in0.0 mm 0.00 in0.0 mm
01:33 AM 47.1°F8.4°C 45.5°F7.5°C 94% 7.0 mph N11.3 kmh N 12.0 mph19.3 kmh 29.11 in985.8 mb 0.00 in0.0 mm 0.00 in0.0 mm 0.00 in0.0 mm
01:36 AM 47.1°F8.4°C 45.5°F7.5°C 94% 8.0 mph N12.9 kmh N 12.0 mph19.3 kmh 29.11 in985.8 mb 0.00 in0.0 mm 0.00 in0.0 mm 0.00 in0.0 mm
01:39 AM 47.1°F8.4°C 45.5°F7.5°C 94% 8.0 mph N12.9 kmh N 12.0 mph19.3 kmh 29.11 in985.8 mb 0.00 in0.0 mm 0.00 in0.0 mm 0.00 in0.0 mm
01:42 AM 47.1°F8.4°C 45.5°F7.5°C 94% 8.0 mph N12.9 kmh N 12.0 mph19.3 kmh 29.11 in985.8 mb 0.00 in0.0 mm 0.00 in0.0 mm 0.00 in0.0 mm
01:45 AM 47.1°F8.4°C 45.5°F7.5°C 94% 7.0 mph N11.3 kmh N 11.0 mph17.7 kmh 29.11 in985.8 mb 0.00 in0.0 mm 0.00 in0.0 mm 0.00 in0.0 mm
01:48 AM 47.1°F8.4°C 45.5°F7.5°C 94% 7.0 mph N11.3 kmh N 12.0 mph19.3 kmh 29.11 in985.8 mb 0.00 in0.0 mm 0.00 in0.0 mm 0.00 in0.0 mm
01:51 AM 47.1°F8.4°C 45.5°F7.5°C 94% 7.0 mph N11.3 kmh N 12.0 mph19.3 kmh 29.11 in985.8 mb 0.00 in0.0 mm 0.00 in0.0 mm 0.00 in0.0 mm
01:54 AM 47.1°F8.4°C 45.5°F7.5°C 94% 7.0 mph N11.3 kmh N 12.0 mph19.3 kmh 29.11 in985.8 mb 0.00 in0.0 mm 0.00 in0.0 mm 0.00 in0.0 mm
01:57 AM 47.1°F8.4°C 45.5°F7.5°C 94% 8.0 mph N12.9 kmh N 12.0 mph19.3 kmh 29.11 in985.8 mb 0.00 in0.0 mm 0.00 in0.0 mm 0.00 in0.0 mm
02:00 AM 47.1°F8.4°C 45.5°F7.5°C 94% 8.0 mph NNE12.9 kmh NNE 12.0 mph19.3 kmh 29.11 in985.8 mb 0.00 in0.0 mm 0.00 in0.0 mm 0.00 in0.0 mm
02:03 AM 47.1°F8.4°C 45.5°F7.5°C 94% 8.0 mph NNE12.9 kmh NNE 12.0 mph19.3 kmh 29.11 in985.8 mb 0.00 in0.0 mm 0.00 in0.0 mm 0.00 in0.0 mm
02:06 AM 47.1°F8.4°C 45.5°F7.5°C 94% 8.0 mph NNE12.9 kmh NNE 12.0 mph19.3 kmh 29.11 in985.8 mb 0.00 in0.0 mm 0.00 in0.0 mm 0.00 in0.0 mm
02:09 AM 47.1°F8.4°C 45.5°F7.5°C 94% 8.0 mph NNE12.9 kmh NNE 12.0 mph19.3 kmh 29.11 in985.8 mb 0.00 in0.0 mm 0.00 in0.0 mm 0.00 in0.0 mm
02:12 AM 47.1°F8.4°C 45.5°F7.5°C 94% 8.0 mph N12.9 kmh N 13.0 mph20.9 kmh 29.11 in985.8 mb 0.00 in0.0 mm 0.00 in0.0 mm 0.00 in0.0 mm
02:15 AM 47.1°F8.4°C 45.5°F7.5°C 94% 8.0 mph N12.9 kmh N 14.0 mph22.5 kmh 29.11 in985.8 mb 0.00 in0.0 mm 0.00 in0.0 mm 0.00 in0.0 mm
02:18 AM 47.1°F8.4°C 45.5°F7.5°C 94% 9.0 mph N14.5 kmh N 16.0 mph25.7 kmh 29.11 in985.8 mb 0.00 in0.0 mm 0.00 in0.0 mm 0.00 in0.0 mm
02:21 AM 47.1°F8.4°C 45.5°F7.5°C 94% 9.0 mph N14.5 kmh N 16.0 mph25.7 kmh 29.11 in985.8 mb 0.00 in0.0 mm 0.00 in0.0 mm 0.00 in0.0 mm
02:24 AM 47.1°F8.4°C 45.5°F7.5°C 94% 10.0 mph N16.1 kmh N 16.0 mph25.7 kmh 29.11 in985.8 mb 0.00 in0.0 mm 0.00 in0.0 mm 0.00 in0.0 mm
02:27 AM 47.1°F8.4°C 45.5°F7.5°C 94% 10.0 mph N16.1 kmh N 14.0 mph22.5 kmh 29.11 in985.8 mb 0.00 in0.0 mm 0.00 in0.0 mm 0.00 in0.0 mm
02:30 AM 47.1°F8.4°C 45.5°F7.5°C 94% 10.0 mph N16.1 kmh N 15.0 mph24.1 kmh 29.11 in985.8 mb 0.00 in0.0 mm 0.00 in0.0 mm 0.00 in0.0 mm
02:33 AM 47.1°F8.4°C 45.5°F7.5°C 94% 10.0 mph N16.1 kmh N 15.0 mph24.1 kmh 29.11 in985.8 mb 0.00 in0.0 mm 0.00 in0.0 mm 0.00 in0.0 mm
02:36 AM 47.1°F8.4°C 45.5°F7.5°C 94% 10.0 mph N16.1 kmh N 17.0 mph27.4 kmh 29.11 in985.8 mb 0.00 in0.0 mm 0.00 in0.0 mm 0.00 in0.0 mm
02:39 AM 47.1°F8.4°C 45.5°F7.5°C 94% 11.0 mph N17.7 kmh N 18.0 mph29.0 kmh 29.11 in985.8 mb 0.00 in0.0 mm 0.00 in0.0 mm 0.00 in0.0 mm
02:42 AM 47.1°F8.4°C 45.5°F7.5°C 94% 11.0 mph N17.7 kmh N 18.0 mph29.0 kmh 29.11 in985.8 mb 0.00 in0.0 mm 0.00 in0.0 mm 0.00 in0.0 mm
02:45 AM 47.1°F8.4°C 45.5°F7.5°C 94% 11.0 mph N17.7 kmh N 18.0 mph29.0 kmh 29.11 in985.8 mb 0.00 in0.0 mm 0.00 in0.0 mm 0.00 in0.0 mm
02:48 AM 47.1°F8.4°C 45.5°F7.5°C 94% 11.0 mph N17.7 kmh N 17.0 mph27.4 kmh 29.11 in985.8 mb 0.00 in0.0 mm 0.00 in0.0 mm 0.00 in0.0 mm
02:51 AM 47.1°F8.4°C 45.5°F7.5°C 94% 11.0 mph N17.7 kmh N 18.0 mph29.0 kmh 29.11 in985.8 mb 0.00 in0.0 mm 0.00 in0.0 mm 0.00 in0.0 mm
02:54 AM 47.1°F8.4°C 45.5°F7.5°C 94% 12.0 mph N19.3 kmh N 18.0 mph29.0 kmh 29.11 in985.8 mb 0.00 in0.0 mm 0.00 in0.0 mm 0.00 in0.0 mm
02:57 AM 47.1°F8.4°C 45.5°F7.5°C 94% 12.0 mph N19.3 kmh N 18.0 mph29.0 kmh 29.11 in985.8 mb 0.00 in0.0 mm 0.00 in0.0 mm 0.00 in0.0 mm
03:00 AM 47.1°F8.4°C 45.5°F7.5°C 94% 12.0 mph N19.3 kmh N 21.0 mph33.8 kmh 29.11 in985.8 mb 0.00 in0.0 mm 0.00 in0.0 mm 0.00 in0.0 mm
03:03 AM 47.1°F8.4°C 45.5°F7.5°C 94% 13.0 mph N20.9 kmh N 21.0 mph33.8 kmh 29.11 in985.8 mb 0.00 in0.0 mm 0.00 in0.0 mm 0.00 in0.0 mm
03:06 AM 47.1°F8.4°C 45.5°F7.5°C 94% 12.0 mph N19.3 kmh N 21.0 mph33.8 kmh 29.11 in985.8 mb 0.00 in0.0 mm 0.00 in0.0 mm 0.00 in0.0 mm
03:09 AM 47.1°F8.4°C 45.5°F7.5°C 94% 13.0 mph N20.9 kmh N 21.0 mph33.8 kmh 29.12 in986.1 mb 0.00 in0.0 mm 0.00 in0.0 mm 0.00 in0.0 mm
03:12 AM 47.1°F8.4°C 45.5°F7.5°C 94% 13.0 mph N20.9 kmh N 21.0 mph33.8 kmh 29.12 in986.1 mb 0.00 in0.0 mm 0.00 in0.0 mm 0.00 in0.0 mm
03:15 AM 47.1°F8.4°C 45.5°F7.5°C 94% 14.0 mph N22.5 kmh N 23.0 mph37.0 kmh 29.12 in986.1 mb 0.00 in0.0 mm 0.00 in0.0 mm 0.00 in0.0 mm
03:18 AM 47.1°F8.4°C 45.5°F7.5°C 94% 14.0 mph N22.5 kmh N 23.0 mph37.0 kmh 29.12 in986.1 mb 0.00 in0.0 mm 0.00 in0.0 mm 0.00 in0.0 mm
03:21 AM 47.1°F8.4°C 45.5°F7.5°C 94% 14.0 mph N22.5 kmh N 23.0 mph37.0 kmh 29.12 in986.1 mb 0.00 in0.0 mm 0.00 in0.0 mm 0.00 in0.0 mm
03:24 AM 47.1°F8.4°C 45.5°F7.5°C 94% 13.0 mph N20.9 kmh N 23.0 mph37.0 kmh 29.12 in986.1 mb 0.00 in0.0 mm 0.00 in0.0 mm 0.00 in0.0 mm
03:27 AM 47.1°F8.4°C 45.5°F7.5°C 94% 12.0 mph N19.3 kmh N 21.0 mph33.8 kmh 29.12 in986.1 mb 0.00 in0.0 mm 0.00 in0.0 mm 0.00 in0.0 mm
03:30 AM 47.1°F8.4°C 45.5°F7.5°C 94% 11.0 mph N17.7 kmh N 18.0 mph29.0 kmh 29.12 in986.1 mb 0.00 in0.0 mm 0.00 in0.0 mm 0.00 in0.0 mm
03:33 AM 47.1°F8.4°C 45.5°F7.5°C 94% 11.0 mph N17.7 kmh N 19.0 mph30.6 kmh 29.12 in986.1 mb 0.00 in0.0 mm 0.00 in0.0 mm 0.00 in0.0 mm
03:36 AM 47.1°F8.4°C 45.5°F7.5°C 94% 12.0 mph N19.3 kmh N 19.0 mph30.6 kmh 29.12 in986.1 mb 0.00 in0.0 mm 0.00 in0.0 mm 0.00 in0.0 mm
03:39 AM 47.1°F8.4°C 45.5°F7.5°C 94% 12.0 mph N19.3 kmh N 20.0 mph32.2 kmh 29.13 in986.5 mb 0.00 in0.0 mm 0.00 in0.0 mm 0.00 in0.0 mm
03:42 AM 47.1°F8.4°C 45.5°F7.5°C 94% 12.0 mph N19.3 kmh N 20.0 mph32.2 kmh 29.13 in986.5 mb 0.00 in0.0 mm 0.00 in0.0 mm 0.00 in0.0 mm
03:45 AM 47.1°F8.4°C 45.5°F7.5°C 94% 11.0 mph N17.7 kmh N 20.0 mph32.2 kmh 29.13 in986.5 mb 0.00 in0.0 mm 0.00 in0.0 mm 0.00 in0.0 mm
03:48 AM 47.1°F8.4°C 45.5°F7.5°C 94% 11.0 mph N17.7 kmh N 16.0 mph25.7 kmh 29.13 in986.5 mb 0.00 in0.0 mm 0.00 in0.0 mm 0.00 in0.0 mm
03:51 AM 47.1°F8.4°C 45.5°F7.5°C 94% 10.0 mph N16.1 kmh N 16.0 mph25.7 kmh 29.13 in986.5 mb 0.00 in0.0 mm 0.00 in0.0 mm 0.00 in0.0 mm
03:54 AM 47.1°F8.4°C 45.5°F7.5°C 94% 10.0 mph N16.1 kmh N 15.0 mph24.1 kmh 29.13 in986.5 mb 0.00 in0.0 mm 0.00 in0.0 mm 0.00 in0.0 mm
03:57 AM 47.1°F8.4°C 45.5°F7.5°C 94% 9.0 mph N14.5 kmh N 15.0 mph24.1 kmh 29.13 in986.5 mb 0.00 in0.0 mm 0.00 in0.0 mm 0.00 in0.0 mm
04:00 AM 47.1°F8.4°C 45.5°F7.5°C 94% 9.0 mph N14.5 kmh N 15.0 mph24.1 kmh 29.13 in986.5 mb 0.00 in0.0 mm 0.00 in0.0 mm 0.00 in0.0 mm
04:03 AM 47.1°F8.4°C 45.5°F7.5°C 94% 9.0 mph N14.5 kmh N 15.0 mph24.1 kmh 29.13 in986.5 mb 0.00 in0.0 mm 0.00 in0.0 mm 0.00 in0.0 mm
04:06 AM 47.1°F8.4°C 45.5°F7.5°C 94% 9.0 mph N14.5 kmh N 14.0 mph22.5 kmh 29.14 in986.8 mb 0.00 in0.0 mm 0.00 in0.0 mm 0.00 in0.0 mm
04:09 AM 47.1°F8.4°C 45.5°F7.5°C 94% 9.0 mph N14.5 kmh N 14.0 mph22.5 kmh 29.14 in986.8 mb 0.00 in0.0 mm 0.00 in0.0 mm 0.00 in0.0 mm
04:12 AM 47.1°F8.4°C 45.5°F7.5°C 94% 9.0 mph N14.5 kmh N 13.0 mph20.9 kmh 29.14 in986.8 mb 0.00 in0.0 mm 0.00 in0.0 mm 0.00 in0.0 mm
04:15 AM 47.1°F8.4°C 45.5°F7.5°C 94% 9.0 mph N14.5 kmh N 13.0 mph20.9 kmh 29.14 in986.8 mb 0.00 in0.0 mm 0.00 in0.0 mm 0.00 in0.0 mm
04:18 AM 47.1°F8.4°C 45.5°F7.5°C 94% 9.0 mph N14.5 kmh N 14.0 mph22.5 kmh 29.14 in986.8 mb 0.00 in0.0 mm 0.00 in0.0 mm 0.00 in0.0 mm
04:21 AM 47.1°F8.4°C 45.5°F7.5°C 94% 9.0 mph N14.5 kmh N 15.0 mph24.1 kmh 29.14 in986.8 mb 0.00 in0.0 mm 0.00 in0.0 mm 0.00 in0.0 mm
04:24 AM 47.1°F8.4°C 45.5°F7.5°C 94% 9.0 mph N14.5 kmh N 16.0 mph25.7 kmh 29.14 in986.8 mb 0.00 in0.0 mm 0.00 in0.0 mm 0.00 in0.0 mm
04:27 AM 47.1°F8.4°C 45.5°F7.5°C 94% 11.0 mph NNW17.7 kmh NNW 17.0 mph27.4 kmh 29.14 in986.8 mb 0.00 in0.0 mm 0.00 in0.0 mm 0.00 in0.0 mm
04:30 AM 47.1°F8.4°C 45.5°F7.5°C 94% 11.0 mph NNW17.7 kmh NNW 17.0 mph27.4 kmh 29.14 in986.8 mb 0.00 in0.0 mm 0.00 in0.0 mm 0.00 in0.0 mm
04:33 AM 47.1°F8.4°C 45.5°F7.5°C 94% 10.0 mph NNW16.1 kmh NNW 17.0 mph27.4 kmh 29.14 in986.8 mb 0.00 in0.0 mm 0.00 in0.0 mm 0.00 in0.0 mm
04:36 AM 47.1°F8.4°C 45.5°F7.5°C 94% 10.0 mph NNW16.1 kmh NNW 16.0 mph25.7 kmh 29.14 in986.8 mb 0.00 in0.0 mm 0.00 in0.0 mm 0.00 in0.0 mm
04:39 AM 47.1°F8.4°C 45.5°F7.5°C 94% 10.0 mph NNW16.1 kmh NNW 14.0 mph22.5 kmh 29.14 in986.8 mb 0.00 in0.0 mm 0.00 in0.0 mm 0.00 in0.0 mm
04:42 AM 47.1°F8.4°C 45.5°F7.5°C 94% 10.0 mph N16.1 kmh N 15.0 mph24.1 kmh 29.15 in987.1 mb 0.00 in0.0 mm 0.00 in0.0 mm 0.00 in0.0 mm
04:45 AM 47.1°F8.4°C 45.5°F7.5°C 94% 10.0 mph NNW16.1 kmh NNW 17.0 mph27.4 kmh 29.15 in987.1 mb 0.00 in0.0 mm 0.00 in0.0 mm 0.00 in0.0 mm
04:48 AM 47.1°F8.4°C 45.5°F7.5°C 94% 11.0 mph NNW17.7 kmh NNW 18.0 mph29.0 kmh 29.15 in987.1 mb 0.00 in0.0 mm 0.00 in0.0 mm 0.00 in0.0 mm
04:51 AM 47.1°F8.4°C 45.5°F7.5°C 94% 12.0 mph NNW19.3 kmh NNW 18.0 mph29.0 kmh 29.15 in987.1 mb 0.00 in0.0 mm 0.00 in0.0 mm 0.00 in0.0 mm
04:54 AM 47.1°F8.4°C 45.5°F7.5°C 94% 12.0 mph NNW19.3 kmh NNW 18.0 mph29.0 kmh 29.15 in987.1 mb 0.00 in0.0 mm 0.00 in0.0 mm 0.00 in0.0 mm
04:57 AM 47.1°F8.4°C 45.5°F7.5°C 94% 12.0 mph NNW19.3 kmh NNW 18.0 mph29.0 kmh 29.15 in987.1 mb 0.00 in0.0 mm 0.00 in0.0 mm 0.00 in0.0 mm
05:00 AM 47.1°F8.4°C 45.5°F7.5°C 94% 11.0 mph N17.7 kmh N 16.0 mph25.7 kmh 29.15 in987.1 mb 0.00 in0.0 mm 0.00 in0.0 mm 0.00 in0.0 mm
05:03 AM 47.1°F8.4°C 45.5°F7.5°C 94% 12.0 mph N19.3 kmh N 16.0 mph25.7 kmh 29.16 in987.5 mb 0.00 in0.0 mm 0.00 in0.0 mm 0.00 in0.0 mm
05:06 AM 47.1°F8.4°C 45.5°F7.5°C 94% 12.0 mph N19.3 kmh N 17.0 mph27.4 kmh 29.16 in987.5 mb 0.00 in0.0 mm 0.00 in0.0 mm 0.00 in0.0 mm
05:09 AM 47.1°F8.4°C 45.5°F7.5°C 94% 12.0 mph NNW19.3 kmh NNW 17.0 mph27.4 kmh 29.16 in987.5 mb 0.00 in0.0 mm 0.00 in0.0 mm 0.00 in0.0 mm
05:12 AM 47.1°F8.4°C 45.5°F7.5°C 94% 12.0 mph NNW19.3 kmh NNW 17.0 mph27.4 kmh 29.16 in987.5 mb 0.00 in0.0 mm 0.00 in0.0 mm 0.00 in0.0 mm
05:15 AM 47.1°F8.4°C 45.5°F7.5°C 94% 12.0 mph NNW19.3 kmh NNW 17.0 mph27.4 kmh 29.16 in987.5 mb 0.00 in0.0 mm 0.00 in0.0 mm 0.00 in0.0 mm
05:18 AM 47.1°F8.4°C 45.5°F7.5°C 94% 12.0 mph N19.3 kmh N 20.0 mph32.2 kmh 29.16 in987.5 mb 0.00 in0.0 mm 0.00 in0.0 mm 0.00 in0.0 mm
05:21 AM 47.1°F8.4°C 45.5°F7.5°C 94% 11.0 mph N17.7 kmh N 20.0 mph32.2 kmh 29.16 in987.5 mb 0.00 in0.0 mm 0.00 in0.0 mm 0.00 in0.0 mm
05:24 AM 47.1°F8.4°C 45.5°F7.5°C 94% 12.0 mph N19.3 kmh N 20.0 mph32.2 kmh 29.17 in987.8 mb 0.00 in0.0 mm 0.00 in0.0 mm 0.00 in0.0 mm
05:27 AM 47.1°F8.4°C 45.5°F7.5°C 94% 12.0 mph N19.3 kmh N 19.0 mph30.6 kmh 29.17 in987.8 mb 0.00 in0.0 mm 0.00 in0.0 mm 0.00 in0.0 mm
05:30 AM 47.1°F8.4°C 45.5°F7.5°C 94% 12.0 mph N19.3 kmh N 19.0 mph30.6 kmh 29.17 in987.8 mb 0.00 in0.0 mm 0.00 in0.0 mm 0.00 in0.0 mm
05:33 AM 47.1°F8.4°C 45.5°F7.5°C 94% 12.0 mph N19.3 kmh N 19.0 mph30.6 kmh 29.17 in987.8 mb 0.00 in0.0 mm 0.00 in0.0 mm 0.00 in0.0 mm
05:36 AM 47.1°F8.4°C 45.5°F7.5°C 94% 12.0 mph N19.3 kmh N 18.0 mph29.0 kmh 29.17 in987.8 mb 0.00 in0.0 mm 0.00 in0.0 mm 0.00 in0.0 mm
05:39 AM 47.1°F8.4°C 45.5°F7.5°C 94% 12.0 mph N19.3 kmh N 18.0 mph29.0 kmh 29.17 in987.8 mb 0.00 in0.0 mm 0.00 in0.0 mm 0.00 in0.0 mm
05:42 AM 47.1°F8.4°C 45.5°F7.5°C 94% 12.0 mph N19.3 kmh N 19.0 mph30.6 kmh 29.17 in987.8 mb 0.00 in0.0 mm 0.00 in0.0 mm 0.00 in0.0 mm
05:45 AM 47.1°F8.4°C 45.5°F7.5°C 94% 12.0 mph N19.3 kmh N 19.0 mph30.6 kmh 29.17 in987.8 mb 0.00 in0.0 mm 0.00 in0.0 mm 0.00 in0.0 mm
05:48 AM 47.1°F8.4°C 45.5°F7.5°C 94% 12.0 mph N19.3 kmh N 19.0 mph30.6 kmh 29.18 in988.1 mb 0.00 in0.0 mm 0.00 in0.0 mm 0.00 in0.0 mm
05:51 AM 47.1°F8.4°C 45.5°F7.5°C 94% 13.0 mph N20.9 kmh N 23.0 mph37.0 kmh 29.18 in988.1 mb 0.00 in0.0 mm 0.00 in0.0 mm 0.00 in0.0 mm
05:54 AM 47.1°F8.4°C 45.5°F7.5°C 94% 14.0 mph NNW22.5 kmh NNW 23.0 mph37.0 kmh 29.18 in988.1 mb 0.00 in0.0 mm 0.00 in0.0 mm 0.00 in0.0 mm
05:57 AM 47.1°F8.4°C 45.5°F7.5°C 94% 14.0 mph NNW22.5 kmh NNW 23.0 mph37.0 kmh 29.18 in988.1 mb 0.00 in0.0 mm 0.00 in0.0 mm 0.00 in0.0 mm
06:00 AM 47.1°F8.4°C 45.5°F7.5°C 94% 13.0 mph NNW20.9 kmh NNW 22.0 mph35.4 kmh 29.18 in988.1 mb 0.00 in0.0 mm 0.00 in0.0 mm 0.00 in0.0 mm
06:03 AM 47.1°F8.4°C 45.5°F7.5°C 94% 13.0 mph NNW20.9 kmh NNW 20.0 mph32.2 kmh 29.18 in988.1 mb 0.00 in0.0 mm 0.00 in0.0 mm 0.00 in0.0 mm
06:06 AM 47.1°F8.4°C 45.5°F7.5°C 94% 13.0 mph NNW20.9 kmh NNW 20.0 mph32.2 kmh 29.19 in988.5 mb 0.00 in0.0 mm 0.00 in0.0 mm 0.00 in0.0 mm
06:09 AM 47.1°F8.4°C 45.5°F7.5°C 94% 15.0 mph NNW24.1 kmh NNW 20.0 mph32.2 kmh 29.19 in988.5 mb 0.00 in0.0 mm 0.00 in0.0 mm 0.00 in0.0 mm
06:12 AM 47.1°F8.4°C 45.5°F7.5°C 94% 14.0 mph NNW22.5 kmh NNW 20.0 mph32.2 kmh 29.19 in988.5 mb 0.00 in0.0 mm 0.00 in0.0 mm 0.00 in0.0 mm
06:15 AM 47.1°F8.4°C 45.5°F7.5°C 94% 13.0 mph NNW20.9 kmh NNW 19.0 mph30.6 kmh 29.19 in988.5 mb 0.00 in0.0 mm 0.00 in0.0 mm 0.00 in0.0 mm
06:18 AM 47.1°F8.4°C 45.5°F7.5°C 94% 12.0 mph NNW19.3 kmh NNW 19.0 mph30.6 kmh 29.19 in988.5 mb 0.00 in0.0 mm 0.00 in0.0 mm 0.00 in0.0 mm
06:21 AM 47.1°F8.4°C 45.5°F7.5°C 94% 12.0 mph NNW19.3 kmh NNW 19.0 mph30.6 kmh 29.19 in988.5 mb 0.00 in0.0 mm 0.00 in0.0 mm 0.00 in0.0 mm
06:24 AM 47.1°F8.4°C 45.5°F7.5°C 94% 12.0 mph NNW19.3 kmh NNW 19.0 mph30.6 kmh 29.20 in988.8 mb 0.00 in0.0 mm 0.00 in0.0 mm 0.00 in0.0 mm
06:27 AM 47.1°F8.4°C 45.5°F7.5°C 94% 12.0 mph NNW19.3 kmh NNW 19.0 mph30.6 kmh 29.20 in988.8 mb 0.00 in0.0 mm 0.00 in0.0 mm 0.00 in0.0 mm
06:30 AM 47.1°F8.4°C 45.5°F7.5°C 94% 12.0 mph NNW19.3 kmh NNW 20.0 mph32.2 kmh 29.20 in988.8 mb 0.00 in0.0 mm 0.00 in0.0 mm 0.00 in0.0 mm
06:33 AM 47.1°F8.4°C 45.5°F7.5°C 94% 13.0 mph NNW20.9 kmh NNW 20.0 mph32.2 kmh 29.20 in988.8 mb 0.00 in0.0 mm 0.00 in0.0 mm 0.00 in0.0 mm
06:36 AM 47.1°F8.4°C 45.5°F7.5°C 94% 13.0 mph NNW20.9 kmh NNW 20.0 mph32.2 kmh 29.20 in988.8 mb 0.00 in0.0 mm 0.00 in0.0 mm 0.00 in0.0 mm
06:39 AM 47.1°F8.4°C 45.5°F7.5°C 94% 13.0 mph NNW20.9 kmh NNW 20.0 mph32.2 kmh 29.20 in988.8 mb 0.00 in0.0 mm 0.00 in0.0 mm 0.00 in0.0 mm
06:42 AM 47.1°F8.4°C 45.5°F7.5°C 94% 13.0 mph NNW20.9 kmh NNW 21.0 mph33.8 kmh 29.20 in988.8 mb 0.00 in0.0 mm 0.00 in0.0 mm 0.00 in0.0 mm
06:45 AM 47.1°F8.4°C 45.5°F7.5°C 94% 13.0 mph NNW20.9 kmh NNW 21.0 mph33.8 kmh 29.20 in988.8 mb 0.00 in0.0 mm 0.00 in0.0 mm 0.00 in0.0 mm
06:48 AM 47.1°F8.4°C 45.5°F7.5°C 94% 14.0 mph NNW22.5 kmh NNW 21.0 mph33.8 kmh 29.20 in988.8 mb 0.00 in0.0 mm 0.00 in0.0 mm 0.00 in0.0 mm
06:51 AM 47.1°F8.4°C 45.5°F7.5°C 94% 13.0 mph NNW20.9 kmh NNW 21.0 mph33.8 kmh 29.21 in989.2 mb 0.00 in0.0 mm 0.00 in0.0 mm 0.00 in0.0 mm
06:54 AM 47.1°F8.4°C 45.5°F7.5°C 94% 13.0 mph NNW20.9 kmh NNW 20.0 mph32.2 kmh 29.21 in989.2 mb 0.00 in0.0 mm 0.00 in0.0 mm 0.00 in0.0 mm
06:57 AM 47.1°F8.4°C 45.5°F7.5°C 94% 13.0 mph N20.9 kmh N 20.0 mph32.2 kmh 29.21 in989.2 mb 0.00 in0.0 mm 0.00 in0.0 mm 0.00 in0.0 mm
07:00 AM 47.1°F8.4°C 45.5°F7.5°C 94% 12.0 mph NNW19.3 kmh NNW 20.0 mph32.2 kmh 29.21 in989.2 mb 0.00 in0.0 mm 0.00 in0.0 mm 0.00 in0.0 mm
07:03 AM 47.1°F8.4°C 45.5°F7.5°C 94% 12.0 mph N19.3 kmh N 18.0 mph29.0 kmh 29.21 in989.2 mb 0.00 in0.0 mm 0.00 in0.0 mm 0.00 in0.0 mm
07:06 AM 47.1°F8.4°C 45.5°F7.5°C 94% 12.0 mph NNW19.3 kmh NNW 19.0 mph30.6 kmh 29.21 in989.2 mb 0.00 in0.0 mm 0.00 in0.0 mm 0.00 in0.0 mm
07:09 AM 47.1°F8.4°C 45.5°F7.5°C 94% 13.0 mph NNW20.9 kmh NNW 20.0 mph32.2 kmh 29.22 in989.5 mb 0.00 in0.0 mm 0.00 in0.0 mm 0.00 in0.0 mm
07:12 AM 47.1°F8.4°C 45.5°F7.5°C 94% 12.0 mph NNW19.3 kmh NNW 20.0 mph32.2 kmh 29.22 in989.5 mb 0.00 in0.0 mm 0.00 in0.0 mm 0.00 in0.0 mm
07:15 AM 47.1°F8.4°C 45.5°F7.5°C 94% 13.0 mph N20.9 kmh N 20.0 mph32.2 kmh 29.22 in989.5 mb 0.00 in0.0 mm 0.00 in0.0 mm 0.00 in0.0 mm
07:18 AM 47.1°F8.4°C 45.5°F7.5°C 94% 13.0 mph NNW20.9 kmh NNW 22.0 mph35.4 kmh 29.23 in989.8 mb 0.00 in0.0 mm 0.00 in0.0 mm 0.00 in0.0 mm
07:21 AM 47.1°F8.4°C 45.5°F7.5°C 94% 13.0 mph NNW20.9 kmh NNW 22.0 mph35.4 kmh 29.23 in989.8 mb 0.00 in0.0 mm 0.00 in0.0 mm 0.00 in0.0 mm
07:24 AM 47.1°F8.4°C 45.5°F7.5°C 94% 14.0 mph NNW22.5 kmh NNW 22.0 mph35.4 kmh 29.23 in989.8 mb 0.00 in0.0 mm 0.00 in0.0 mm 0.00 in0.0 mm
07:27 AM 47.1°F8.4°C 45.5°F7.5°C 94% 14.0 mph NNW22.5 kmh NNW 22.0 mph35.4 kmh 29.23 in989.8 mb 0.00 in0.0 mm 0.00 in0.0 mm 0.00 in0.0 mm
07:30 AM 47.1°F8.4°C 45.5°F7.5°C 94% 14.0 mph NNW22.5 kmh NNW 22.0 mph35.4 kmh 29.23 in989.8 mb 0.00 in0.0 mm 0.00 in0.0 mm 0.00 in0.0 mm
07:33 AM 47.1°F8.4°C 45.5°F7.5°C 94% 13.0 mph NNW20.9 kmh NNW 20.0 mph32.2 kmh 29.23 in989.8 mb 0.00 in0.0 mm 0.00 in0.0 mm 0.00 in0.0 mm
07:36 AM 47.1°F8.4°C 45.5°F7.5°C 94% 13.0 mph NNW20.9 kmh NNW 21.0 mph33.8 kmh 29.23 in989.8 mb 0.00 in0.0 mm 0.00 in0.0 mm 0.00 in0.0 mm
07:39 AM 47.1°F8.4°C 45.5°F7.5°C 94% 14.0 mph NNW22.5 kmh NNW 24.0 mph38.6 kmh 29.23 in989.8 mb 0.00 in0.0 mm 0.00 in0.0 mm 0.00 in0.0 mm
07:42 AM 47.1°F8.4°C 45.5°F7.5°C 94% 16.0 mph NNW25.7 kmh NNW 26.0 mph41.8 kmh 29.24 in990.2 mb 0.00 in0.0 mm 0.00 in0.0 mm 0.00 in0.0 mm
07:45 AM 47.1°F8.4°C 45.5°F7.5°C 94% 16.0 mph NNW25.7 kmh NNW 26.0 mph41.8 kmh 29.24 in990.2 mb 0.00 in0.0 mm 0.00 in0.0 mm 0.00 in0.0 mm
07:48 AM 47.1°F8.4°C 45.5°F7.5°C 94% 16.0 mph NNW25.7 kmh NNW 26.0 mph41.8 kmh 29.24 in990.2 mb 0.00 in0.0 mm 0.00 in0.0 mm 0.00 in0.0 mm
07:51 AM 47.1°F8.4°C 45.5°F7.5°C 94% 14.0 mph NNW22.5 kmh NNW 20.0 mph32.2 kmh 29.24 in990.2 mb 0.00 in0.0 mm 0.00 in0.0 mm 0.00 in0.0 mm
07:54 AM 47.1°F8.4°C 45.5°F7.5°C 94% 14.0 mph NNW22.5 kmh NNW 21.0 mph33.8 kmh 29.24 in990.2 mb 0.00 in0.0 mm 0.00 in0.0 mm 0.00 in0.0 mm
07:57 AM 47.1°F8.4°C 45.5°F7.5°C 94% 15.0 mph NNW24.1 kmh NNW 22.0 mph35.4 kmh 29.25 in990.5 mb 0.00 in0.0 mm 0.00 in0.0 mm 0.00 in0.0 mm
08:00 AM 47.1°F8.4°C 45.5°F7.5°C 94% 15.0 mph NNW24.1 kmh NNW 22.0 mph35.4 kmh 29.25 in990.5 mb 0.00 in0.0 mm 0.00 in0.0 mm 0.00 in0.0 mm
08:03 AM 47.1°F8.4°C 45.5°F7.5°C 94% 16.0 mph NNW25.7 kmh NNW 22.0 mph35.4 kmh 29.25 in990.5 mb 0.00 in0.0 mm 0.00 in0.0 mm 0.00 in0.0 mm
08:06 AM 47.1°F8.4°C 45.5°F7.5°C 94% 15.0 mph NNW24.1 kmh NNW 23.0 mph37.0 kmh 29.25 in990.5 mb 0.00 in0.0 mm 0.00 in0.0 mm 0.00 in0.0 mm
08:09 AM 47.1°F8.4°C 45.5°F7.5°C 94% 15.0 mph NNW24.1 kmh NNW 23.0 mph37.0 kmh 29.25 in990.5 mb 0.00 in0.0 mm 0.00 in0.0 mm 0.00 in0.0 mm
08:12 AM 47.1°F8.4°C 45.5°F7.5°C 94% 15.0 mph NNW24.1 kmh NNW 24.0 mph38.6 kmh 29.25 in990.5 mb 0.00 in0.0 mm 0.00 in0.0 mm 0.00 in0.0 mm
08:15 AM 47.1°F8.4°C 45.5°F7.5°C 94% 16.0 mph NNW25.7 kmh NNW 24.0 mph38.6 kmh 29.25 in990.5 mb 0.00 in0.0 mm 0.00 in0.0 mm 0.00 in0.0 mm
08:18 AM 47.1°F8.4°C 45.5°F7.5°C 94% 17.0 mph NNW27.4 kmh NNW 26.0 mph41.8 kmh 29.26 in990.9 mb 0.00 in0.0 mm 0.00 in0.0 mm 0.00 in0.0 mm
08:21 AM 47.1°F8.4°C 45.5°F7.5°C 94% 17.0 mph NNW27.4 kmh NNW 26.0 mph41.8 kmh 29.26 in990.9 mb 0.00 in0.0 mm 0.00 in0.0 mm 0.00 in0.0 mm
08:24 AM 47.1°F8.4°C 45.5°F7.5°C 94% 17.0 mph NNW27.4 kmh NNW 26.0 mph41.8 kmh 29.26 in990.9 mb 0.00 in0.0 mm 0.00 in0.0 mm 0.00 in0.0 mm
08:27 AM 47.1°F8.4°C 45.5°F7.5°C 94% 16.0 mph NNW25.7 kmh NNW 26.0 mph41.8 kmh 29.26 in990.9 mb 0.00 in0.0 mm 0.00 in0.0 mm 0.00 in0.0 mm
08:30 AM 47.1°F8.4°C 45.5°F7.5°C 94% 16.0 mph NNW25.7 kmh NNW 26.0 mph41.8 kmh 29.26 in990.9 mb 0.00 in0.0 mm 0.00 in0.0 mm 0.00 in0.0 mm
08:33 AM 47.1°F8.4°C 45.5°F7.5°C 94% 15.0 mph NNW24.1 kmh NNW 23.0 mph37.0 kmh 29.26 in990.9 mb 0.00 in0.0 mm 0.00 in0.0 mm 0.00 in0.0 mm
08:36 AM 47.1°F8.4°C 45.5°F7.5°C 94% 16.0 mph NNW25.7 kmh NNW 27.0 mph43.5 kmh 29.27 in991.2 mb 0.00 in0.0 mm 0.00 in0.0 mm 0.00 in0.0 mm
08:39 AM 47.1°F8.4°C 45.5°F7.5°C 94% 16.0 mph NNW25.7 kmh NNW 29.0 mph46.7 kmh 29.27 in991.2 mb 0.00 in0.0 mm 0.00 in0.0 mm 0.00 in0.0 mm
08:42 AM 47.1°F8.4°C 45.5°F7.5°C 94% 17.0 mph NNW27.4 kmh NNW 29.0 mph46.7 kmh 29.27 in991.2 mb 0.00 in0.0 mm 0.00 in0.0 mm 0.00 in0.0 mm
08:45 AM 47.1°F8.4°C 45.5°F7.5°C 94% 18.0 mph NNW29.0 kmh NNW 29.0 mph46.7 kmh 29.27 in991.2 mb 0.00 in0.0 mm 0.00 in0.0 mm 0.00 in0.0 mm
08:48 AM 47.1°F8.4°C 45.5°F7.5°C 94% 17.0 mph NNW27.4 kmh NNW 27.0 mph43.5 kmh 29.28 in991.5 mb 0.00 in0.0 mm 0.00 in0.0 mm 0.00 in0.0 mm
08:51 AM 47.1°F8.4°C 45.5°F7.5°C 94% 17.0 mph NNW27.4 kmh NNW 27.0 mph43.5 kmh 29.28 in991.5 mb 0.00 in0.0 mm 0.00 in0.0 mm 0.00 in0.0 mm
08:54 AM 47.1°F8.4°C 45.5°F7.5°C 94% 17.0 mph NNW27.4 kmh NNW 27.0 mph43.5 kmh 29.28 in991.5 mb 0.00 in0.0 mm 0.00 in0.0 mm 0.00 in0.0 mm
08:57 AM 47.1°F8.4°C 45.5°F7.5°C 94% 17.0 mph NNW27.4 kmh NNW 27.0 mph43.5 kmh 29.28 in991.5 mb 0.00 in0.0 mm 0.00 in0.0 mm 0.00 in0.0 mm
09:00 AM 47.1°F8.4°C 45.5°F7.5°C 94% 17.0 mph NNW27.4 kmh NNW 26.0 mph41.8 kmh 29.29 in991.9 mb 0.00 in0.0 mm 0.00 in0.0 mm 0.00 in0.0 mm
09:03 AM 47.1°F8.4°C 45.5°F7.5°C 94% 17.0 mph NNW27.4 kmh NNW 25.0 mph40.2 kmh 29.29 in991.9 mb 0.00 in0.0 mm 0.00 in0.0 mm 0.00 in0.0 mm
09:06 AM 47.1°F8.4°C 45.5°F7.5°C 94% 17.0 mph NNW27.4 kmh NNW 25.0 mph40.2 kmh 29.29 in991.9 mb 0.00 in0.0 mm 0.00 in0.0 mm 0.00 in0.0 mm
09:09 AM 47.1°F8.4°C 45.5°F7.5°C 94% 16.0 mph NNW25.7 kmh NNW 25.0 mph40.2 kmh 29.30 in992.2 mb 0.00 in0.0 mm 0.00 in0.0 mm 0.00 in0.0 mm
09:12 AM 47.1°F8.4°C 45.5°F7.5°C 94% 16.0 mph N25.7 kmh N 25.0 mph40.2 kmh 29.30 in992.2 mb 0.00 in0.0 mm 0.00 in0.0 mm 0.00 in0.0 mm
09:15 AM 47.1°F8.4°C 45.5°F7.5°C 94% 17.0 mph NNW27.4 kmh NNW 25.0 mph40.2 kmh 29.30 in992.2 mb 0.00 in0.0 mm 0.00 in0.0 mm 0.00 in0.0 mm
09:18 AM 47.1°F8.4°C 45.5°F7.5°C 94% 17.0 mph NNW27.4 kmh NNW 26.0 mph41.8 kmh 29.30 in992.2 mb 0.00 in0.0 mm 0.00 in0.0 mm 0.00 in0.0 mm
09:21 AM 47.1°F8.4°C 45.5°F7.5°C 94% 16.0 mph NNW25.7 kmh NNW 26.0 mph41.8 kmh 29.30 in992.2 mb 0.00 in0.0 mm 0.00 in0.0 mm 0.00 in0.0 mm
09:24 AM 47.1°F8.4°C 45.5°F7.5°C 94% 16.0 mph NNW25.7 kmh NNW 31.0 mph49.9 kmh 29.30 in992.2 mb 0.00 in0.0 mm 0.00 in0.0 mm 0.00 in0.0 mm
09:27 AM 47.1°F8.4°C 45.5°F7.5°C 94% 17.0 mph NNW27.4 kmh NNW 31.0 mph49.9 kmh 29.30 in992.2 mb 0.00 in0.0 mm 0.00 in0.0 mm 0.00 in0.0 mm
09:30 AM 47.1°F8.4°C 45.5°F7.5°C 94% 17.0 mph NNW27.4 kmh NNW 31.0 mph49.9 kmh 29.30 in992.2 mb 0.00 in0.0 mm 0.00 in0.0 mm 0.00 in0.0 mm
09:33 AM 47.1°F8.4°C 45.5°F7.5°C 94% 18.0 mph NNW29.0 kmh NNW 28.0 mph45.1 kmh 29.30 in992.2 mb 0.00 in0.0 mm 0.00 in0.0 mm 0.00 in0.0 mm
09:36 AM 47.1°F8.4°C 45.5°F7.5°C 94% 17.0 mph N27.4 kmh N 25.0 mph40.2 kmh 29.31 in992.6 mb 0.00 in0.0 mm 0.00 in0.0 mm 0.00 in0.0 mm
09:39 AM 47.1°F8.4°C 45.5°F7.5°C 94% 17.0 mph N27.4 kmh N 26.0 mph41.8 kmh 29.31 in992.6 mb 0.00 in0.0 mm 0.00 in0.0 mm 0.00 in0.0 mm
09:42 AM 47.1°F8.4°C 45.5°F7.5°C 94% 17.0 mph N27.4 kmh N 26.0 mph41.8 kmh 29.30 in992.2 mb 0.00 in0.0 mm 0.00 in0.0 mm 0.00 in0.0 mm
09:45 AM 47.1°F8.4°C 45.5°F7.5°C 94% 17.0 mph N27.4 kmh N 26.0 mph41.8 kmh 29.31 in992.6 mb 0.00 in0.0 mm 0.00 in0.0 mm 0.00 in0.0 mm
09:48 AM 47.1°F8.4°C 45.5°F7.5°C 94% 18.0 mph N29.0 kmh N 28.0 mph45.1 kmh 29.31 in992.6 mb 0.00 in0.0 mm 0.00 in0.0 mm 0.00 in0.0 mm
09:51 AM 47.1°F8.4°C 45.5°F7.5°C 94% 18.0 mph N29.0 kmh N 28.0 mph45.1 kmh 29.31 in992.6 mb 0.00 in0.0 mm 0.00 in0.0 mm 0.00 in0.0 mm
09:54 AM 47.1°F8.4°C 45.5°F7.5°C 94% 19.0 mph N30.6 kmh N 31.0 mph49.9 kmh 29.31 in992.6 mb 0.00 in0.0 mm 0.00 in0.0 mm 0.00 in0.0 mm
09:57 AM 47.1°F8.4°C 45.5°F7.5°C 94% 19.0 mph N30.6 kmh N 31.0 mph49.9 kmh 29.31 in992.6 mb 0.00 in0.0 mm 0.00 in0.0 mm 0.00 in0.0 mm
10:00 AM 47.1°F8.4°C 45.5°F7.5°C 94% 19.0 mph N30.6 kmh N 31.0 mph49.9 kmh 29.32 in992.9 mb 0.00 in0.0 mm 0.00 in0.0 mm 0.00 in0.0 mm
10:03 AM 47.1°F8.4°C 45.5°F7.5°C 94% 19.0 mph N30.6 kmh N 31.0 mph49.9 kmh 29.32 in992.9 mb 0.00 in0.0 mm 0.00 in0.0 mm 0.00 in0.0 mm
10:06 AM 47.1°F8.4°C 45.5°F7.5°C 94% 19.0 mph N30.6 kmh N 32.0 mph51.5 kmh 29.32 in992.9 mb 0.00 in0.0 mm 0.00 in0.0 mm 0.00 in0.0 mm
10:09 AM 47.1°F8.4°C 45.5°F7.5°C 94% 20.0 mph N32.2 kmh N 32.0 mph51.5 kmh 29.32 in992.9 mb 0.00 in0.0 mm 0.00 in0.0 mm 0.00 in0.0 mm
10:12 AM 44.1°F6.7°C 39.7°F4.3°C 85% 20.0 mph N32.2 kmh N 32.0 mph51.5 kmh 29.32 in992.9 mb 0.00 in0.0 mm 0.00 in0.0 mm 0.00 in0.0 mm
10:15 AM 44.1°F6.7°C 39.7°F4.3°C 85% 20.0 mph N32.2 kmh N 32.0 mph51.5 kmh 29.33 in993.2 mb 0.00 in0.0 mm 0.00 in0.0 mm 0.00 in0.0 mm
10:18 AM 44.1°F6.7°C 39.7°F4.3°C 85% 19.0 mph NNW30.6 kmh NNW 29.0 mph46.7 kmh 29.33 in993.2 mb 0.00 in0.0 mm 0.00 in0.0 mm 0.00 in0.0 mm
10:21 AM 43.9°F6.6°C 39.7°F4.3°C 85% 17.0 mph NNW27.4 kmh NNW 26.0 mph41.8 kmh 29.33 in993.2 mb 0.00 in0.0 mm 0.00 in0.0 mm 0.00 in0.0 mm
10:24 AM 43.5°F6.4°C 39.2°F4.0°C 85% 16.0 mph NNW25.7 kmh NNW 26.0 mph41.8 kmh 29.34 in993.6 mb 0.00 in0.0 mm 0.00 in0.0 mm 0.00 in0.0 mm
10:27 AM 43.5°F6.4°C 39.6°F4.2°C 86% 15.0 mph NNW24.1 kmh NNW 25.0 mph40.2 kmh 29.34 in993.6 mb 0.00 in0.0 mm 0.00 in0.0 mm 0.00 in0.0 mm
10:30 AM 43.9°F6.6°C 39.9°F4.4°C 86% 15.0 mph NNW24.1 kmh NNW 25.0 mph40.2 kmh 29.34 in993.6 mb 0.00 in0.0 mm 0.00 in0.0 mm 0.00 in0.0 mm
10:33 AM 44.1°F6.7°C 39.9°F4.4°C 85% 14.0 mph NNW22.5 kmh NNW 22.0 mph35.4 kmh 29.34 in993.6 mb 0.00 in0.0 mm 0.00 in0.0 mm 0.00 in0.0 mm
10:36 AM 44.1°F6.7°C 39.9°F4.4°C 85% 14.0 mph NNW22.5 kmh NNW 26.0 mph41.8 kmh 29.34 in993.6 mb 0.00 in0.0 mm 0.00 in0.0 mm 0.00 in0.0 mm
10:39 AM 44.1°F6.7°C 39.6°F4.2°C 84% 14.0 mph N22.5 kmh N 26.0 mph41.8 kmh 29.35 in993.9 mb 0.00 in0.0 mm 0.00 in0.0 mm 0.00 in0.0 mm
10:42 AM 43.9°F6.6°C 39.4°F4.1°C 84% 13.0 mph N20.9 kmh N 26.0 mph41.8 kmh 29.35 in993.9 mb 0.00 in0.0 mm 0.00 in0.0 mm 0.00 in0.0 mm
10:45 AM 43.5°F6.4°C 39.0°F3.9°C 84% 14.0 mph NNW22.5 kmh NNW 25.0 mph40.2 kmh 29.35 in993.9 mb 0.00 in0.0 mm 0.00 in0.0 mm 0.00 in0.0 mm
10:48 AM 43.3°F6.3°C 38.8°F3.8°C 84% 15.0 mph NNW24.1 kmh NNW 26.0 mph41.8 kmh 29.35 in993.9 mb 0.00 in0.0 mm 0.00 in0.0 mm 0.00 in0.0 mm
10:51 AM 43.2°F6.2°C 38.8°F3.8°C 85% 17.0 mph NNW27.4 kmh NNW 26.0 mph41.8 kmh 29.35 in993.9 mb 0.00 in0.0 mm 0.00 in0.0 mm 0.00 in0.0 mm
10:54 AM 43.0°F6.1°C 38.5°F3.6°C 84% 17.0 mph NNW27.4 kmh NNW 26.0 mph41.8 kmh 29.35 in993.9 mb 0.00 in0.0 mm 0.00 in0.0 mm 0.00 in0.0 mm
10:57 AM 43.0°F6.1°C 38.8°F3.8°C 85% 17.0 mph NNW27.4 kmh NNW 26.0 mph41.8 kmh 29.35 in993.9 mb 0.00 in0.0 mm 0.00 in0.0 mm 0.00 in0.0 mm
11:00 AM 43.2°F6.2°C 39.0°F3.9°C 85% 16.0 mph NNW25.7 kmh NNW 26.0 mph41.8 kmh 29.35 in993.9 mb 0.00 in0.0 mm 0.00 in0.0 mm 0.00 in0.0 mm
11:03 AM 43.5°F6.4°C 39.2°F4.0°C 85% 15.0 mph NNW24.1 kmh NNW 22.0 mph35.4 kmh 29.35 in993.9 mb 0.00 in0.0 mm 0.00 in0.0 mm 0.00 in0.0 mm
11:06 AM 43.5°F6.4°C 39.0°F3.9°C 84% 14.0 mph NNW22.5 kmh NNW 24.0 mph38.6 kmh 29.36 in994.2 mb 0.00 in0.0 mm 0.00 in0.0 mm 0.00 in0.0 mm
11:09 AM 43.3°F6.3°C 38.8°F3.8°C 84% 14.0 mph NNW22.5 kmh NNW 24.0 mph38.6 kmh 29.36 in994.2 mb 0.00 in0.0 mm 0.00 in0.0 mm 0.00 in0.0 mm
11:12 AM 43.3°F6.3°C 38.8°F3.8°C 84% 14.0 mph NNW22.5 kmh NNW 24.0 mph38.6 kmh 29.36 in994.2 mb 0.00 in0.0 mm 0.00 in0.0 mm 0.00 in0.0 mm
11:15 AM 43.2°F6.2°C 38.3°F3.5°C 83% 15.0 mph NNW24.1 kmh NNW 25.0 mph40.2 kmh 29.36 in994.2 mb 0.00 in0.0 mm 0.00 in0.0 mm 0.00 in0.0 mm
11:18 AM 43.0°F6.1°C 38.1°F3.4°C 83% 16.0 mph NNW25.7 kmh NNW 30.0 mph48.3 kmh 29.36 in994.2 mb 0.00 in0.0 mm 0.00 in0.0 mm 0.00 in0.0 mm
11:21 AM 43.0°F6.1°C 38.1°F3.4°C 83% 18.0 mph NNW29.0 kmh NNW 30.0 mph48.3 kmh 29.36 in994.2 mb 0.00 in0.0 mm 0.00 in0.0 mm 0.00 in0.0 mm
11:24 AM 43.2°F6.2°C 38.3°F3.5°C 83% 18.0 mph NNW29.0 kmh NNW 30.0 mph48.3 kmh 29.36 in994.2 mb 0.00 in0.0 mm 0.00 in0.0 mm 0.00 in0.0 mm
11:27 AM 43.3°F6.3°C 38.5°F3.6°C 83% 17.0 mph NNW27.4 kmh NNW 30.0 mph48.3 kmh 29.36 in994.2 mb 0.00 in0.0 mm 0.00 in0.0 mm 0.00 in0.0 mm
11:30 AM 43.5°F6.4°C 38.8°F3.8°C 83% 17.0 mph NNW27.4 kmh NNW 28.0 mph45.1 kmh 29.37 in994.6 mb 0.00 in0.0 mm 0.00 in0.0 mm 0.00 in0.0 mm
11:33 AM 43.7°F6.5°C 38.5°F3.6°C 82% 17.0 mph NNW27.4 kmh NNW 27.0 mph43.5 kmh 29.37 in994.6 mb 0.00 in0.0 mm 0.00 in0.0 mm 0.00 in0.0 mm
11:36 AM 43.9°F6.6°C 38.8°F3.8°C 82% 18.0 mph N29.0 kmh N 27.0 mph43.5 kmh 29.37 in994.6 mb 0.00 in0.0 mm 0.00 in0.0 mm 0.00 in0.0 mm
11:39 AM 44.2°F6.8°C 39.0°F3.9°C 82% 18.0 mph N29.0 kmh N 27.0 mph43.5 kmh 29.37 in994.6 mb 0.00 in0.0 mm 0.00 in0.0 mm 0.00 in0.0 mm
11:42 AM 44.4°F6.9°C 39.0°F3.9°C 81% 18.0 mph N29.0 kmh N 30.0 mph48.3 kmh 29.37 in994.6 mb 0.00 in0.0 mm 0.00 in0.0 mm 0.00 in0.0 mm
11:45 AM 44.2°F6.8°C 38.1°F3.4°C 79% 18.0 mph N29.0 kmh N 30.0 mph48.3 kmh 29.37 in994.6 mb 0.00 in0.0 mm 0.00 in0.0 mm 0.00 in0.0 mm
11:48 AM 44.1°F6.7°C 38.3°F3.5°C 80% 18.0 mph N29.0 kmh N 30.0 mph48.3 kmh 29.38 in994.9 mb 0.00 in0.0 mm 0.00 in0.0 mm 0.00 in0.0 mm
11:51 AM 44.4°F6.9°C 39.0°F3.9°C 81% 17.0 mph N27.4 kmh N 30.0 mph48.3 kmh 29.38 in994.9 mb 0.00 in0.0 mm 0.00 in0.0 mm 0.00 in0.0 mm
11:54 AM 44.6°F7.0°C 38.8°F3.8°C 80% 16.0 mph N25.7 kmh N 25.0 mph40.2 kmh 29.38 in994.9 mb 0.00 in0.0 mm 0.00 in0.0 mm 0.00 in0.0 mm
11:57 AM 44.8°F7.1°C 38.8°F3.8°C 80% 15.0 mph N24.1 kmh N 23.0 mph37.0 kmh 29.38 in994.9 mb 0.00 in0.0 mm 0.00 in0.0 mm 0.00 in0.0 mm
12:00 PM 44.6°F7.0°C 38.8°F3.8°C 80% 17.0 mph NNW27.4 kmh NNW 28.0 mph45.1 kmh 29.38 in994.9 mb 0.00 in0.0 mm 0.00 in0.0 mm 0.00 in0.0 mm
12:03 PM 44.8°F7.1°C 38.8°F3.8°C 80% 18.0 mph NNW29.0 kmh NNW 28.0 mph45.1 kmh 29.38 in994.9 mb 0.00 in0.0 mm 0.00 in0.0 mm 0.00 in0.0 mm
12:06 PM 45.1°F7.3°C 39.0°F3.9°C 79% 20.0 mph NNW32.2 kmh NNW 31.0 mph49.9 kmh 29.38 in994.9 mb 0.00 in0.0 mm 0.00 in0.0 mm 0.00 in0.0 mm
12:09 PM 45.7°F7.6°C 39.2°F4.0°C 78% 20.0 mph NNW32.2 kmh NNW 31.0 mph49.9 kmh 29.39 in995.3 mb 0.00 in0.0 mm 0.00 in0.0 mm 0.00 in0.0 mm
12:12 PM 45.9°F7.7°C 38.7°F3.7°C 76% 21.0 mph NNW33.8 kmh NNW 31.0 mph49.9 kmh 29.39 in995.3 mb 0.00 in0.0 mm 0.00 in0.0 mm 0.00 in0.0 mm
12:15 PM 46.2°F7.9°C 39.7°F4.3°C 78% 19.0 mph NNW30.6 kmh NNW 31.0 mph49.9 kmh 29.39 in995.3 mb 0.00 in0.0 mm 0.00 in0.0 mm 0.00 in0.0 mm
12:18 PM 46.6°F8.1°C 39.4°F4.1°C 76% 18.0 mph N29.0 kmh N 31.0 mph49.9 kmh 29.40 in995.6 mb 0.00 in0.0 mm 0.00 in0.0 mm 0.00 in0.0 mm
12:21 PM 46.2°F7.9°C 38.8°F3.8°C 75% 17.0 mph N27.4 kmh N 29.0 mph46.7 kmh 29.40 in995.6 mb 0.00 in0.0 mm 0.00 in0.0 mm 0.00 in0.0 mm
12:24 PM 46.4°F8.0°C 39.2°F4.0°C 76% 16.0 mph N25.7 kmh N 25.0 mph40.2 kmh 29.40 in995.6 mb 0.00 in0.0 mm 0.00 in0.0 mm 0.00 in0.0 mm
12:27 PM 46.8°F8.2°C 39.9°F4.4°C 77% 16.0 mph N25.7 kmh N 25.0 mph40.2 kmh 29.40 in995.6 mb 0.00 in0.0 mm 0.00 in0.0 mm 0.00 in0.0 mm
12:30 PM 46.9°F8.3°C 39.7°F4.3°C 76% 14.0 mph N22.5 kmh N 25.0 mph40.2 kmh 29.40 in995.6 mb 0.00 in0.0 mm 0.00 in0.0 mm 0.00 in0.0 mm
12:33 PM 46.8°F8.2°C 39.0°F3.9°C 74% 15.0 mph NNW24.1 kmh NNW 27.0 mph43.5 kmh 29.40 in995.6 mb 0.00 in0.0 mm 0.00 in0.0 mm 0.00 in0.0 mm
12:36 PM 46.6°F8.1°C 38.8°F3.8°C 74% 15.0 mph NNW24.1 kmh NNW 27.0 mph43.5 kmh 29.40 in995.6 mb 0.00 in0.0 mm 0.00 in0.0 mm 0.00 in0.0 mm
12:39 PM 46.4°F8.0°C 38.8°F3.8°C 75% 18.0 mph NNW29.0 kmh NNW 27.0 mph43.5 kmh 29.40 in995.6 mb 0.00 in0.0 mm 0.00 in0.0 mm 0.00 in0.0 mm
12:42 PM 46.2°F7.9°C 38.7°F3.7°C 75% 18.0 mph NNW29.0 kmh NNW 27.0 mph43.5 kmh 29.40 in995.6 mb 0.00 in0.0 mm 0.00 in0.0 mm 0.00 in0.0 mm
12:45 PM 46.6°F8.1°C 39.4°F4.1°C 76% 18.0 mph NNW29.0 kmh NNW 28.0 mph45.1 kmh 29.41 in995.9 mb 0.00 in0.0 mm 0.00 in0.0 mm 0.00 in0.0 mm
12:48 PM 46.9°F8.3°C 39.4°F4.1°C 75% 18.0 mph NNW29.0 kmh NNW 28.0 mph45.1 kmh 29.41 in995.9 mb 0.00 in0.0 mm 0.00 in0.0 mm 0.00 in0.0 mm
12:51 PM 47.1°F8.4°C 39.4°F4.1°C 74% 17.0 mph N27.4 kmh N 28.0 mph45.1 kmh 29.41 in995.9 mb 0.00 in0.0 mm 0.00 in0.0 mm 0.00 in0.0 mm
12:54 PM 47.7°F8.7°C 39.7°F4.3°C 74% 16.0 mph NNW25.7 kmh NNW 28.0 mph45.1 kmh 29.41 in995.9 mb 0.00 in0.0 mm 0.00 in0.0 mm 0.00 in0.0 mm
12:57 PM 47.7°F8.7°C 39.0°F3.9°C 72% 15.0 mph N24.1 kmh N 27.0 mph43.5 kmh 29.41 in995.9 mb 0.00 in0.0 mm 0.00 in0.0 mm 0.00 in0.0 mm
01:00 PM 47.1°F8.4°C 38.1°F3.4°C 71% 16.0 mph NNW25.7 kmh NNW 25.0 mph40.2 kmh 29.42 in996.3 mb 0.00 in0.0 mm 0.00 in0.0 mm 0.00 in0.0 mm
01:03 PM 46.9°F8.3°C 38.3°F3.5°C 72% 16.0 mph NNW25.7 kmh NNW 25.0 mph40.2 kmh 29.42 in996.3 mb 0.00 in0.0 mm 0.00 in0.0 mm 0.00 in0.0 mm
01:06 PM 46.8°F8.2°C 38.7°F3.7°C 73% 15.0 mph NNW24.1 kmh NNW 25.0 mph40.2 kmh 29.42 in996.3 mb 0.00 in0.0 mm 0.00 in0.0 mm 0.00 in0.0 mm
01:09 PM 46.8°F8.2°C 38.7°F3.7°C 73% 14.0 mph NNW22.5 kmh NNW 24.0 mph38.6 kmh 29.42 in996.3 mb 0.00 in0.0 mm 0.00 in0.0 mm 0.00 in0.0 mm
01:12 PM 47.1°F8.4°C 39.2°F4.0°C 74% 15.0 mph NNW24.1 kmh NNW 28.0 mph45.1 kmh 29.42 in996.3 mb 0.00 in0.0 mm 0.00 in0.0 mm 0.00 in0.0 mm
01:15 PM 47.5°F8.6°C 39.2°F4.0°C 73% 16.0 mph NNW25.7 kmh NNW 28.0 mph45.1 kmh 29.42 in996.3 mb 0.00 in0.0 mm 0.00 in0.0 mm 0.00 in0.0 mm
01:18 PM 48.2°F9.0°C 39.6°F4.2°C 72% 18.0 mph NNW29.0 kmh NNW 30.0 mph48.3 kmh 29.42 in996.3 mb 0.00 in0.0 mm 0.00 in0.0 mm 0.00 in0.0 mm
01:21 PM 48.6°F9.2°C 39.9°F4.4°C 72% 19.0 mph NNW30.6 kmh NNW 30.0 mph48.3 kmh 29.43 in996.6 mb 0.00 in0.0 mm 0.00 in0.0 mm 0.00 in0.0 mm
01:24 PM 48.4°F9.1°C 38.7°F3.7°C 69% 19.0 mph NNW30.6 kmh NNW 30.0 mph48.3 kmh 29.42 in996.3 mb 0.00 in0.0 mm 0.00 in0.0 mm 0.00 in0.0 mm
01:27 PM 48.6°F9.2°C 38.5°F3.6°C 68% 19.0 mph N30.6 kmh N 28.0 mph45.1 kmh 29.42 in996.3 mb 0.00 in0.0 mm 0.00 in0.0 mm 0.00 in0.0 mm
01:30 PM 48.2°F9.0°C 37.8°F3.2°C 67% 19.0 mph N30.6 kmh N 29.0 mph46.7 kmh 29.42 in996.3 mb 0.00 in0.0 mm 0.00 in0.0 mm 0.00 in0.0 mm
01:33 PM 48.0°F8.9°C 38.3°F3.5°C 69% 20.0 mph N32.2 kmh N 32.0 mph51.5 kmh 29.42 in996.3 mb 0.00 in0.0 mm 0.00 in0.0 mm 0.00 in0.0 mm
01:36 PM 48.0°F8.9°C 38.3°F3.5°C 69% 21.0 mph N33.8 kmh N 32.0 mph51.5 kmh 29.42 in996.3 mb 0.00 in0.0 mm 0.00 in0.0 mm 0.00 in0.0 mm
01:39 PM 48.4°F9.1°C 37.8°F3.2°C 67% 21.0 mph N33.8 kmh N 32.0 mph51.5 kmh 29.42 in996.3 mb 0.00 in0.0 mm 0.00 in0.0 mm 0.00 in0.0 mm
01:42 PM 48.6°F9.2°C 38.5°F3.6°C 68% 19.0 mph N30.6 kmh N 32.0 mph51.5 kmh 29.43 in996.6 mb 0.00 in0.0 mm 0.00 in0.0 mm 0.00 in0.0 mm
01:45 PM 48.6°F9.2°C 38.5°F3.6°C 68% 16.0 mph N25.7 kmh N 30.0 mph48.3 kmh 29.43 in996.6 mb 0.00 in0.0 mm 0.00 in0.0 mm 0.00 in0.0 mm
01:48 PM 48.7°F9.3°C 38.7°F3.7°C 68% 17.0 mph NNW27.4 kmh NNW 33.0 mph53.1 kmh 29.43 in996.6 mb 0.00 in0.0 mm 0.00 in0.0 mm 0.00 in0.0 mm
01:51 PM 49.3°F9.6°C 38.5°F3.6°C 66% 18.0 mph NNW29.0 kmh NNW 33.0 mph53.1 kmh 29.43 in996.6 mb 0.00 in0.0 mm 0.00 in0.0 mm 0.00 in0.0 mm
01:54 PM 49.6°F9.8°C 38.7°F3.7°C 66% 20.0 mph NNW32.2 kmh NNW 33.0 mph53.1 kmh 29.43 in996.6 mb 0.00 in0.0 mm 0.00 in0.0 mm 0.00 in0.0 mm
01:57 PM 49.6°F9.8°C 38.8°F3.8°C 66% 19.0 mph NNW30.6 kmh NNW 33.0 mph53.1 kmh 29.43 in996.6 mb 0.00 in0.0 mm 0.00 in0.0 mm 0.00 in0.0 mm
02:00 PM 49.3°F9.6°C 37.9°F3.3°C 65% 18.0 mph NNW29.0 kmh NNW 29.0 mph46.7 kmh 29.43 in996.6 mb 0.00 in0.0 mm 0.00 in0.0 mm 0.00 in0.0 mm
02:03 PM 48.7°F9.3°C 37.9°F3.3°C 66% 19.0 mph NNW30.6 kmh NNW 29.0 mph46.7 kmh 29.44 in997.0 mb 0.00 in0.0 mm 0.00 in0.0 mm 0.00 in0.0 mm
02:06 PM 49.3°F9.6°C 39.0°F3.9°C 68% 18.0 mph NNW29.0 kmh NNW 28.0 mph45.1 kmh 29.44 in997.0 mb 0.00 in0.0 mm 0.00 in0.0 mm 0.00 in0.0 mm
02:09 PM 49.8°F9.9°C 40.1°F4.5°C 69% 16.0 mph NNW25.7 kmh NNW 28.0 mph45.1 kmh 29.44 in997.0 mb 0.00 in0.0 mm 0.00 in0.0 mm 0.00 in0.0 mm
02:12 PM 50.4°F10.2°C 39.4°F4.1°C 66% 16.0 mph NNW25.7 kmh NNW 27.0 mph43.5 kmh 29.45 in997.3 mb 0.00 in0.0 mm 0.00 in0.0 mm 0.00 in0.0 mm
02:15 PM 50.7°F10.4°C 39.0°F3.9°C 64% 14.0 mph NNW22.5 kmh NNW 27.0 mph43.5 kmh 29.45 in997.3 mb 0.00 in0.0 mm 0.00 in0.0 mm 0.00 in0.0 mm
02:18 PM 51.3°F10.7°C 40.6°F4.8°C 67% 14.0 mph NNW22.5 kmh NNW 27.0 mph43.5 kmh 29.45 in997.3 mb 0.00 in0.0 mm 0.00 in0.0 mm 0.00 in0.0 mm
02:21 PM 51.6°F10.9°C 39.7°F4.3°C 64% 15.0 mph NNW24.1 kmh NNW 26.0 mph41.8 kmh 29.45 in997.3 mb 0.00 in0.0 mm 0.00 in0.0 mm 0.00 in0.0 mm
02:24 PM 51.1°F10.6°C 38.1°F3.4°C 61% 16.0 mph NNW25.7 kmh NNW 26.0 mph41.8 kmh 29.45 in997.3 mb 0.00 in0.0 mm 0.00 in0.0 mm 0.00 in0.0 mm
02:27 PM 50.5°F10.3°C 37.9°F3.3°C 62% 18.0 mph NNW29.0 kmh NNW 30.0 mph48.3 kmh 29.46 in997.6 mb 0.00 in0.0 mm 0.00 in0.0 mm 0.00 in0.0 mm
02:30 PM 49.6°F9.8°C 37.0°F2.8°C 62% 19.0 mph NNW30.6 kmh NNW 30.0 mph48.3 kmh 29.46 in997.6 mb 0.00 in0.0 mm 0.00 in0.0 mm 0.00 in0.0 mm
02:33 PM 49.3°F9.6°C 36.7°F2.6°C 62% 18.0 mph NNW29.0 kmh NNW 30.0 mph48.3 kmh 29.46 in997.6 mb 0.00 in0.0 mm 0.00 in0.0 mm 0.00 in0.0 mm
02:36 PM 48.9°F9.4°C 36.9°F2.7°C 63% 18.0 mph NNW29.0 kmh NNW 30.0 mph48.3 kmh 29.46 in997.6 mb 0.00 in0.0 mm 0.00 in0.0 mm 0.00 in0.0 mm
02:39 PM 48.9°F9.4°C 37.8°F3.2°C 65% 15.0 mph NNW24.1 kmh NNW 24.0 mph38.6 kmh 29.46 in997.6 mb 0.00 in0.0 mm 0.00 in0.0 mm 0.00 in0.0 mm
02:42 PM 49.3°F9.6°C 37.9°F3.3°C 65% 13.0 mph NNW20.9 kmh NNW 23.0 mph37.0 kmh 29.47 in998.0 mb 0.00 in0.0 mm 0.00 in0.0 mm 0.00 in0.0 mm
02:45 PM 49.6°F9.8°C 38.5°F3.6°C 65% 12.0 mph NNW19.3 kmh NNW 24.0 mph38.6 kmh 29.47 in998.0 mb 0.00 in0.0 mm 0.00 in0.0 mm 0.00 in0.0 mm
02:48 PM 49.8°F9.9°C 37.8°F3.2°C 63% 14.0 mph NNW22.5 kmh NNW 27.0 mph43.5 kmh 29.47 in998.0 mb 0.00 in0.0 mm 0.00 in0.0 mm 0.00 in0.0 mm
02:51 PM 49.3°F9.6°C 35.4°F1.9°C 59% 17.0 mph NNW27.4 kmh NNW 28.0 mph45.1 kmh 29.47 in998.0 mb 0.00 in0.0 mm 0.00 in0.0 mm 0.00 in0.0 mm
02:54 PM 48.7°F9.3°C 35.4°F1.9°C 60% 18.0 mph NNW29.0 kmh NNW 28.0 mph45.1 kmh 29.48 in998.3 mb 0.00 in0.0 mm 0.00 in0.0 mm 0.00 in0.0 mm
02:57 PM 48.4°F9.1°C 35.4°F1.9°C 61% 18.0 mph N29.0 kmh N 28.0 mph45.1 kmh 29.48 in998.3 mb 0.00 in0.0 mm 0.00 in0.0 mm 0.00 in0.0 mm
03:00 PM 47.8°F8.8°C 35.1°F1.7°C 61% 16.0 mph N25.7 kmh N 33.0 mph53.1 kmh 29.48 in998.3 mb 0.00 in0.0 mm 0.00 in0.0 mm 0.00 in0.0 mm
03:03 PM 47.7°F8.7°C 35.8°F2.1°C 63% 15.0 mph NNW24.1 kmh NNW 33.0 mph53.1 kmh 29.48 in998.3 mb 0.00 in0.0 mm 0.00 in0.0 mm 0.00 in0.0 mm
03:06 PM 47.5°F8.6°C 35.1°F1.7°C 62% 15.0 mph N24.1 kmh N 33.0 mph53.1 kmh 29.49 in998.6 mb 0.00 in0.0 mm 0.00 in0.0 mm 0.00 in0.0 mm
03:09 PM 47.5°F8.6°C 36.0°F2.2°C 64% 15.0 mph N24.1 kmh N 27.0 mph43.5 kmh 29.49 in998.6 mb 0.00 in0.0 mm 0.00 in0.0 mm 0.00 in0.0 mm
03:12 PM 47.5°F8.6°C 35.4°F1.9°C 63% 17.0 mph N27.4 kmh N 27.0 mph43.5 kmh 29.49 in998.6 mb 0.00 in0.0 mm 0.00 in0.0 mm 0.00 in0.0 mm
03:15 PM 47.3°F8.5°C 34.9°F1.6°C 62% 17.0 mph N27.4 kmh N 25.0 mph40.2 kmh 29.49 in998.6 mb 0.00 in0.0 mm 0.00 in0.0 mm 0.00 in0.0 mm
03:18 PM 47.7°F8.7°C 36.1°F2.3°C 64% 16.0 mph NNW25.7 kmh NNW 25.0 mph40.2 kmh 29.49 in998.6 mb 0.00 in0.0 mm 0.00 in0.0 mm 0.00 in0.0 mm
03:21 PM 48.0°F8.9°C 36.3°F2.4°C 64% 16.0 mph NNW25.7 kmh NNW 25.0 mph40.2 kmh 29.50 in999.0 mb 0.00 in0.0 mm 0.00 in0.0 mm 0.00 in0.0 mm
03:24 PM 48.0°F8.9°C 36.3°F2.4°C 64% 15.0 mph NNW24.1 kmh NNW 25.0 mph40.2 kmh 29.50 in999.0 mb 0.00 in0.0 mm 0.00 in0.0 mm 0.00 in0.0 mm
03:27 PM 47.8°F8.8°C 36.7°F2.6°C 65% 15.0 mph NNW24.1 kmh NNW 25.0 mph40.2 kmh 29.50 in999.0 mb 0.00 in0.0 mm 0.00 in0.0 mm 0.00 in0.0 mm
03:30 PM 48.6°F9.2°C 38.5°F3.6°C 68% 14.0 mph NNW22.5 kmh NNW 30.0 mph48.3 kmh 29.50 in999.0 mb 0.00 in0.0 mm 0.00 in0.0 mm 0.00 in0.0 mm
03:33 PM 48.9°F9.4°C 38.1°F3.4°C 66% 15.0 mph NNW24.1 kmh NNW 30.0 mph48.3 kmh 29.50 in999.0 mb 0.00 in0.0 mm 0.00 in0.0 mm 0.00 in0.0 mm
03:36 PM 48.9°F9.4°C 37.8°F3.2°C 65% 16.0 mph NNW25.7 kmh NNW 30.0 mph48.3 kmh 29.50 in999.0 mb 0.00 in0.0 mm 0.00 in0.0 mm 0.00 in0.0 mm
03:39 PM 48.7°F9.3°C 38.3°F3.5°C 67% 15.0 mph NNW24.1 kmh NNW 28.0 mph45.1 kmh 29.51 in999.3 mb 0.00 in0.0 mm 0.00 in0.0 mm 0.00 in0.0 mm
03:42 PM 48.7°F9.3°C 38.3°F3.5°C 67% 16.0 mph NNW25.7 kmh NNW 28.0 mph45.1 kmh 29.51 in999.3 mb 0.00 in0.0 mm 0.00 in0.0 mm 0.00 in0.0 mm
03:45 PM 49.1°F9.5°C 39.0°F3.9°C 68% 16.0 mph NNW25.7 kmh NNW 25.0 mph40.2 kmh 29.51 in999.3 mb 0.00 in0.0 mm 0.00 in0.0 mm 0.00 in0.0 mm
03:48 PM 49.1°F9.5°C 37.4°F3.0°C 64% 16.0 mph NNW25.7 kmh NNW 26.0 mph41.8 kmh 29.51 in999.3 mb 0.00 in0.0 mm 0.00 in0.0 mm 0.00 in0.0 mm
03:51 PM 49.3°F9.6°C 37.2°F2.9°C 63% 17.0 mph NNW27.4 kmh NNW 29.0 mph46.7 kmh 29.52 in999.7 mb 0.00 in0.0 mm 0.00 in0.0 mm 0.00 in0.0 mm
03:54 PM 49.5°F9.7°C 37.4°F3.0°C 63% 17.0 mph NNW27.4 kmh NNW 29.0 mph46.7 kmh 29.52 in999.7 mb 0.00 in0.0 mm 0.00 in0.0 mm 0.00 in0.0 mm
03:57 PM 49.6°F9.8°C 37.6°F3.1°C 63% 15.0 mph NNW24.1 kmh NNW 29.0 mph46.7 kmh 29.52 in999.7 mb 0.00 in0.0 mm 0.00 in0.0 mm 0.00 in0.0 mm
04:00 PM 50.0°F10.0°C 38.7°F3.7°C 65% 13.0 mph NNW20.9 kmh NNW 27.0 mph43.5 kmh 29.52 in999.7 mb 0.00 in0.0 mm 0.00 in0.0 mm 0.00 in0.0 mm
04:03 PM 50.5°F10.3°C 39.2°F4.0°C 65% 13.0 mph NNW20.9 kmh NNW 22.0 mph35.4 kmh 29.52 in999.7 mb 0.15 in3.8 mm 3.00 in76.2 mm 0.15 in3.8 mm
04:06 PM 50.5°F10.3°C 39.2°F4.0°C 65% 12.0 mph NNW19.3 kmh NNW 22.0 mph35.4 kmh 29.52 in999.7 mb 0.15 in3.8 mm 0.00 in0.0 mm 0.15 in3.8 mm
04:09 PM 50.5°F10.3°C 39.2°F4.0°C 65% 12.0 mph NNW19.3 kmh NNW 22.0 mph35.4 kmh 29.53 in1000.0 mb 0.15 in3.8 mm 0.00 in0.0 mm 0.15 in3.8 mm
04:12 PM 50.5°F10.3°C 39.2°F4.0°C 65% 10.0 mph NW16.1 kmh NW 22.0 mph35.4 kmh 29.52 in999.7 mb 0.15 in3.8 mm 0.00 in0.0 mm 0.15 in3.8 mm
04:15 PM 50.5°F10.3°C 39.2°F4.0°C 65% 10.0 mph NW16.1 kmh NW 21.0 mph33.8 kmh 29.52 in999.7 mb 0.15 in3.8 mm 0.00 in0.0 mm 0.15 in3.8 mm
04:18 PM 50.5°F10.3°C 39.2°F4.0°C 65% 10.0 mph NW16.1 kmh NW 25.0 mph40.2 kmh 29.52 in999.7 mb 0.15 in3.8 mm 0.00 in0.0 mm 0.15 in3.8 mm
04:21 PM 51.4°F10.8°C 38.5°F3.6°C 61% 13.0 mph NNW20.9 kmh NNW 28.0 mph45.1 kmh 29.53 in1000.0 mb 0.15 in3.8 mm 0.00 in0.0 mm 0.15 in3.8 mm
04:24 PM 51.4°F10.8°C 38.5°F3.6°C 61% 15.0 mph NNW24.1 kmh NNW 28.0 mph45.1 kmh 29.53 in1000.0 mb 0.15 in3.8 mm 0.00 in0.0 mm 0.15 in3.8 mm
04:27 PM 51.3°F10.7°C 37.9°F3.3°C 60% 17.0 mph NNW27.4 kmh NNW 28.0 mph45.1 kmh 29.53 in1000.0 mb 0.15 in3.8 mm 0.00 in0.0 mm 0.15 in3.8 mm
04:30 PM 51.1°F10.6°C 37.6°F3.1°C 60% 16.0 mph NNW25.7 kmh NNW 25.0 mph40.2 kmh 29.53 in1000.0 mb 0.15 in3.8 mm 0.00 in0.0 mm 0.15 in3.8 mm
04:33 PM 50.7°F10.4°C 37.4°F3.0°C 60% 17.0 mph NNW27.4 kmh NNW 28.0 mph45.1 kmh 29.54 in1000.3 mb 0.15 in3.8 mm 0.00 in0.0 mm 0.15 in3.8 mm
04:36 PM 50.7°F10.4°C 37.4°F3.0°C 60% 17.0 mph NNW27.4 kmh NNW 28.0 mph45.1 kmh 29.54 in1000.3 mb 0.15 in3.8 mm 0.00 in0.0 mm 0.15 in3.8 mm
04:39 PM 50.9°F10.5°C 38.7°F3.7°C 63% 17.0 mph NNW27.4 kmh NNW 29.0 mph46.7 kmh 29.54 in1000.3 mb 0.15 in3.8 mm 0.00 in0.0 mm 0.15 in3.8 mm
04:42 PM 51.1°F10.6°C 37.6°F3.1°C 60% 17.0 mph NNW27.4 kmh NNW 29.0 mph46.7 kmh 29.54 in1000.3 mb 0.15 in3.8 mm 0.00 in0.0 mm 0.15 in3.8 mm
04:45 PM 50.9°F10.5°C 37.0°F2.8°C 59% 16.0 mph NNW25.7 kmh NNW 29.0 mph46.7 kmh 29.55 in1000.7 mb 0.15 in3.8 mm 0.00 in0.0 mm 0.15 in3.8 mm
04:48 PM 50.5°F10.3°C 37.6°F3.1°C 61% 16.0 mph NNW25.7 kmh NNW 29.0 mph46.7 kmh 29.55 in1000.7 mb 0.15 in3.8 mm 0.00 in0.0 mm 0.15 in3.8 mm
04:51 PM 50.2°F10.1°C 36.7°F2.6°C 60% 16.0 mph NNW25.7 kmh NNW 28.0 mph45.1 kmh 29.55 in1000.7 mb 0.15 in3.8 mm 0.00 in0.0 mm 0.15 in3.8 mm
04:54 PM 49.8°F9.9°C 37.0°F2.8°C 61% 16.0 mph NNW25.7 kmh NNW 28.0 mph45.1 kmh 29.55 in1000.7 mb 0.15 in3.8 mm 0.00 in0.0 mm 0.15 in3.8 mm
04:57 PM 49.8°F9.9°C 37.4°F3.0°C 62% 14.0 mph NNW22.5 kmh NNW 24.0 mph38.6 kmh 29.56 in1001.0 mb 0.15 in3.8 mm 0.00 in0.0 mm 0.15 in3.8 mm
05:00 PM 50.0°F10.0°C 37.9°F3.3°C 63% 14.0 mph NNW22.5 kmh NNW 26.0 mph41.8 kmh 29.56 in1001.0 mb 0.15 in3.8 mm 0.00 in0.0 mm 0.15 in3.8 mm
05:03 PM 50.2°F10.1°C 37.6°F3.1°C 62% 14.0 mph NNW22.5 kmh NNW 26.0 mph41.8 kmh 29.56 in1001.0 mb 0.00 in0.0 mm 0.00 in0.0 mm 0.15 in3.8 mm
05:06 PM 50.4°F10.2°C 38.1°F3.4°C 63% 15.0 mph NNW24.1 kmh NNW 26.0 mph41.8 kmh 29.56 in1001.0 mb 0.00 in0.0 mm 0.00 in0.0 mm 0.15 in3.8 mm
05:09 PM 50.4°F10.2°C 37.4°F3.0°C 61% 14.0 mph NNW22.5 kmh NNW 24.0 mph38.6 kmh 29.56 in1001.0 mb 0.00 in0.0 mm 0.00 in0.0 mm 0.15 in3.8 mm
05:12 PM 50.4°F10.2°C 36.5°F2.5°C 59% 15.0 mph NNW24.1 kmh NNW 29.0 mph46.7 kmh 29.57 in1001.4 mb 0.00 in0.0 mm 0.00 in0.0 mm 0.15 in3.8 mm
05:15 PM 50.2°F10.1°C 36.7°F2.6°C 60% 16.0 mph NNW25.7 kmh NNW 29.0 mph46.7 kmh 29.57 in1001.4 mb 0.00 in0.0 mm 0.00 in0.0 mm 0.15 in3.8 mm
05:18 PM 50.0°F10.0°C 37.0°F2.8°C 61% 16.0 mph NNW25.7 kmh NNW 29.0 mph46.7 kmh 29.57 in1001.4 mb 0.00 in0.0 mm 0.00 in0.0 mm 0.15 in3.8 mm
05:21 PM 49.8°F9.9°C 36.9°F2.7°C 61% 16.0 mph NNW25.7 kmh NNW 29.0 mph46.7 kmh 29.57 in1001.4 mb 0.00 in0.0 mm 0.00 in0.0 mm 0.15 in3.8 mm
05:24 PM 49.6°F9.8°C 37.2°F2.9°C 62% 14.0 mph NNW22.5 kmh NNW 28.0 mph45.1 kmh 29.57 in1001.4 mb 0.00 in0.0 mm 0.00 in0.0 mm 0.15 in3.8 mm
05:27 PM 49.6°F9.8°C 36.9°F2.7°C 61% 13.0 mph NNW20.9 kmh NNW 28.0 mph45.1 kmh 29.58 in1001.7 mb 0.00 in0.0 mm 0.00 in0.0 mm 0.15 in3.8 mm
05:30 PM 49.6°F9.8°C 37.2°F2.9°C 62% 13.0 mph NNW20.9 kmh NNW 28.0 mph45.1 kmh 29.58 in1001.7 mb 0.00 in0.0 mm 0.00 in0.0 mm 0.15 in3.8 mm
05:33 PM 49.6°F9.8°C 37.2°F2.9°C 62% 12.0 mph NNW19.3 kmh NNW 23.0 mph37.0 kmh 29.58 in1001.7 mb 0.00 in0.0 mm 0.00 in0.0 mm 0.15 in3.8 mm
05:36 PM 49.5°F9.7°C 36.7°F2.6°C 61% 14.0 mph NNW22.5 kmh NNW 25.0 mph40.2 kmh 29.58 in1001.7 mb 0.00 in0.0 mm 0.00 in0.0 mm 0.15 in3.8 mm
05:39 PM 49.3°F9.6°C 37.2°F2.9°C 63% 14.0 mph NNW22.5 kmh NNW 25.0 mph40.2 kmh 29.58 in1001.7 mb 0.00 in0.0 mm 0.00 in0.0 mm 0.15 in3.8 mm
05:42 PM 48.9°F9.4°C 36.9°F2.7°C 63% 14.0 mph NNW22.5 kmh NNW 25.0 mph40.2 kmh 29.58 in1001.7 mb 0.00 in0.0 mm 0.00 in0.0 mm 0.15 in3.8 mm
05:45 PM 48.7°F9.3°C 36.7°F2.6°C 63% 15.0 mph NNW24.1 kmh NNW 25.0 mph40.2 kmh 29.59 in1002.0 mb 0.00 in0.0 mm 0.00 in0.0 mm 0.15 in3.8 mm
05:48 PM 48.7°F9.3°C 36.3°F2.4°C 62% 15.0 mph NNW24.1 kmh NNW 25.0 mph40.2 kmh 29.59 in1002.0 mb 0.00 in0.0 mm 0.00 in0.0 mm 0.15 in3.8 mm
05:51 PM 48.6°F9.2°C 36.1°F2.3°C 62% 15.0 mph NNW24.1 kmh NNW 25.0 mph40.2 kmh 29.59 in1002.0 mb 0.00 in0.0 mm 0.00 in0.0 mm 0.15 in3.8 mm
05:54 PM 48.4°F9.1°C 36.0°F2.2°C 62% 15.0 mph NNW24.1 kmh NNW 26.0 mph41.8 kmh 29.60 in1002.4 mb 0.00 in0.0 mm 0.00 in0.0 mm 0.15 in3.8 mm
05:57 PM 48.2°F9.0°C 35.4°F1.9°C 61% 15.0 mph NNW24.1 kmh NNW 26.0 mph41.8 kmh 29.60 in1002.4 mb 0.00 in0.0 mm 0.00 in0.0 mm 0.15 in3.8 mm
06:00 PM 48.2°F9.0°C 35.8°F2.1°C 62% 14.0 mph NNW22.5 kmh NNW 26.0 mph41.8 kmh 29.60 in1002.4 mb 0.00 in0.0 mm 0.00 in0.0 mm 0.15 in3.8 mm
06:03 PM 48.0°F8.9°C 36.1°F2.3°C 63% 13.0 mph NNW20.9 kmh NNW 24.0 mph38.6 kmh 29.61 in1002.7 mb 0.00 in0.0 mm 0.00 in0.0 mm 0.15 in3.8 mm
06:06 PM 47.8°F8.8°C 34.7°F1.5°C 60% 12.0 mph NNW19.3 kmh NNW 22.0 mph35.4 kmh 29.61 in1002.7 mb 0.00 in0.0 mm 0.00 in0.0 mm 0.15 in3.8 mm
06:09 PM 47.7°F8.7°C 34.0°F1.1°C 59% 12.0 mph NNW19.3 kmh NNW 22.0 mph35.4 kmh 29.61 in1002.7 mb 0.00 in0.0 mm 0.00 in0.0 mm 0.15 in3.8 mm
06:12 PM 47.5°F8.6°C 33.4°F0.8°C 58% 10.0 mph NNW16.1 kmh NNW 22.0 mph35.4 kmh 29.61 in1002.7 mb 0.00 in0.0 mm 0.00 in0.0 mm 0.15 in3.8 mm
06:15 PM 47.1°F8.4°C 33.6°F0.9°C 59% 10.0 mph NNW16.1 kmh NNW 19.0 mph30.6 kmh 29.62 in1003.0 mb 0.00 in0.0 mm 0.00 in0.0 mm 0.15 in3.8 mm
06:18 PM 47.1°F8.4°C 33.4°F0.8°C 59% 10.0 mph NNW16.1 kmh NNW 18.0 mph29.0 kmh 29.62 in1003.0 mb 0.00 in0.0 mm 0.00 in0.0 mm 0.15 in3.8 mm
06:21 PM 47.1°F8.4°C 34.0°F1.1°C 60% 10.0 mph NNW16.1 kmh NNW 18.0 mph29.0 kmh 29.62 in1003.0 mb 0.00 in0.0 mm 0.00 in0.0 mm 0.15 in3.8 mm
06:24 PM 46.9°F8.3°C 33.8°F1.0°C 60% 11.0 mph NNW17.7 kmh NNW 19.0 mph30.6 kmh 29.63 in1003.4 mb 0.00 in0.0 mm 0.00 in0.0 mm 0.15 in3.8 mm
06:27 PM 46.8°F8.2°C 34.0°F1.1°C 61% 11.0 mph NNW17.7 kmh NNW 19.0 mph30.6 kmh 29.63 in1003.4 mb 0.00 in0.0 mm 0.00 in0.0 mm 0.15 in3.8 mm
06:30 PM 46.2°F7.9°C 34.0°F1.1°C 62% 11.0 mph NNW17.7 kmh NNW 19.0 mph30.6 kmh 29.63 in1003.4 mb 0.00 in0.0 mm 0.00 in0.0 mm 0.15 in3.8 mm
06:33 PM 46.0°F7.8°C 34.2°F1.2°C 63% 11.0 mph NNW17.7 kmh NNW 18.0 mph29.0 kmh 29.64 in1003.7 mb 0.00 in0.0 mm 0.00 in0.0 mm 0.15 in3.8 mm
06:36 PM 46.0°F7.8°C 34.5°F1.4°C 64% 10.0 mph NNW16.1 kmh NNW 18.0 mph29.0 kmh 29.64 in1003.7 mb 0.00 in0.0 mm 0.00 in0.0 mm 0.15 in3.8 mm
06:39 PM 45.9°F7.7°C 34.3°F1.3°C 64% 9.0 mph NNW14.5 kmh NNW 16.0 mph25.7 kmh 29.64 in1003.7 mb 0.00 in0.0 mm 0.00 in0.0 mm 0.15 in3.8 mm
06:42 PM 45.7°F7.6°C 34.2°F1.2°C 64% 9.0 mph NNW14.5 kmh NNW 20.0 mph32.2 kmh 29.64 in1003.7 mb 0.00 in0.0 mm 0.00 in0.0 mm 0.15 in3.8 mm
06:45 PM 45.3°F7.4°C 33.8°F1.0°C 64% 10.0 mph NNW16.1 kmh NNW 20.0 mph32.2 kmh 29.64 in1003.7 mb 0.00 in0.0 mm 0.00 in0.0 mm 0.15 in3.8 mm
06:48 PM 45.0°F7.2°C 33.6°F0.9°C 64% 11.0 mph NNW17.7 kmh NNW 20.0 mph32.2 kmh 29.64 in1003.7 mb 0.00 in0.0 mm 0.00 in0.0 mm 0.15 in3.8 mm
06:51 PM 44.8°F7.1°C 33.4°F0.8°C 64% 12.0 mph NNW19.3 kmh NNW 20.0 mph32.2 kmh 29.65 in1004.1 mb 0.00 in0.0 mm 0.00 in0.0 mm 0.15 in3.8 mm
06:54 PM 44.6°F7.0°C 33.6°F0.9°C 65% 11.0 mph NNW17.7 kmh NNW 18.0 mph29.0 kmh 29.65 in1004.1 mb 0.00 in0.0 mm 0.00 in0.0 mm 0.15 in3.8 mm
06:57 PM 44.4°F6.9°C 33.4°F0.8°C 65% 10.0 mph NNW16.1 kmh NNW 18.0 mph29.0 kmh 29.65 in1004.1 mb 0.00 in0.0 mm 0.00 in0.0 mm 0.15 in3.8 mm
07:00 PM 44.1°F6.7°C 33.1°F0.6°C 65% 9.0 mph NNW14.5 kmh NNW 18.0 mph29.0 kmh 29.66 in1004.4 mb 0.00 in0.0 mm 0.00 in0.0 mm 0.15 in3.8 mm
07:03 PM 43.9°F6.6°C 32.9°F0.5°C 65% 9.0 mph NNW14.5 kmh NNW 18.0 mph29.0 kmh 29.66 in1004.4 mb 0.00 in0.0 mm 0.00 in0.0 mm 0.15 in3.8 mm
07:06 PM 43.9°F6.6°C 32.7°F0.4°C 65% 10.0 mph NNW16.1 kmh NNW 18.0 mph29.0 kmh 29.66 in1004.4 mb 0.00 in0.0 mm 0.00 in0.0 mm 0.15 in3.8 mm
07:09 PM 43.7°F6.5°C 32.7°F0.4°C 65% 10.0 mph NNW16.1 kmh NNW 18.0 mph29.0 kmh 29.66 in1004.4 mb 0.00 in0.0 mm 0.00 in0.0 mm 0.15 in3.8 mm
07:12 PM 43.5°F6.4°C 32.5°F0.3°C 65% 10.0 mph NNW16.1 kmh NNW 17.0 mph27.4 kmh 29.66 in1004.4 mb 0.00 in0.0 mm 0.00 in0.0 mm 0.15 in3.8 mm
07:15 PM 43.3°F6.3°C 32.4°F0.2°C 65% 10.0 mph NNW16.1 kmh NNW 17.0 mph27.4 kmh 29.67 in1004.7 mb 0.00 in0.0 mm 0.00 in0.0 mm 0.15 in3.8 mm
07:18 PM 43.2°F6.2°C 32.2°F0.1°C 65% 10.0 mph NNW16.1 kmh NNW 22.0 mph35.4 kmh 29.67 in1004.7 mb 0.00 in0.0 mm 0.00 in0.0 mm 0.15 in3.8 mm
07:21 PM 43.2°F6.2°C 32.5°F0.3°C 66% 9.0 mph NNW14.5 kmh NNW 22.0 mph35.4 kmh 29.68 in1005.1 mb 0.00 in0.0 mm 0.00 in0.0 mm 0.15 in3.8 mm
07:24 PM 42.8°F6.0°C 32.2°F0.1°C 66% 10.0 mph NNW16.1 kmh NNW 22.0 mph35.4 kmh 29.68 in1005.1 mb 0.00 in0.0 mm 0.00 in0.0 mm 0.15 in3.8 mm
07:27 PM 42.6°F5.9°C 32.4°F0.2°C 67% 10.0 mph NNW16.1 kmh NNW 17.0 mph27.4 kmh 29.68 in1005.1 mb 0.00 in0.0 mm 0.00 in0.0 mm 0.15 in3.8 mm
07:30 PM 42.4°F5.8°C 32.2°F0.1°C 67% 10.0 mph NNW16.1 kmh NNW 17.0 mph27.4 kmh 29.69 in1005.4 mb 0.00 in0.0 mm 0.00 in0.0 mm 0.15 in3.8 mm
07:33 PM 42.3°F5.7°C 32.5°F0.3°C 68% 11.0 mph NNW17.7 kmh NNW 17.0 mph27.4 kmh 29.69 in1005.4 mb 0.00 in0.0 mm 0.00 in0.0 mm 0.15 in3.8 mm
07:36 PM 42.3°F5.7°C 32.5°F0.3°C 68% 10.0 mph NNW16.1 kmh NNW 17.0 mph27.4 kmh 29.69 in1005.4 mb 0.00 in0.0 mm 0.00 in0.0 mm 0.15 in3.8 mm
07:39 PM 42.3°F5.7°C 32.4°F0.2°C 68% 11.0 mph NNW17.7 kmh NNW 17.0 mph27.4 kmh 29.69 in1005.4 mb 0.00 in0.0 mm 0.00 in0.0 mm 0.15 in3.8 mm
07:42 PM 42.1°F5.6°C 32.7°F0.4°C 69% 10.0 mph NNW16.1 kmh NNW 15.0 mph24.1 kmh 29.70 in1005.8 mb 0.00 in0.0 mm 0.00 in0.0 mm 0.15 in3.8 mm
07:45 PM 42.1°F5.6°C 32.5°F0.3°C 69% 10.0 mph NNW16.1 kmh NNW 15.0 mph24.1 kmh 29.70 in1005.8 mb 0.00 in0.0 mm 0.00 in0.0 mm 0.15 in3.8 mm
07:48 PM 41.9°F5.5°C 32.9°F0.5°C 70% 9.0 mph NNW14.5 kmh NNW 15.0 mph24.1 kmh 29.70 in1005.8 mb 0.00 in0.0 mm 0.00 in0.0 mm 0.15 in3.8 mm
07:51 PM 41.7°F5.4°C 32.7°F0.4°C 70% 8.0 mph NNW12.9 kmh NNW 13.0 mph20.9 kmh 29.70 in1005.8 mb 0.00 in0.0 mm 0.00 in0.0 mm 0.15 in3.8 mm
07:54 PM 41.4°F5.2°C 32.4°F0.2°C 70% 8.0 mph NNW12.9 kmh NNW 13.0 mph20.9 kmh 29.70 in1005.8 mb 0.00 in0.0 mm 0.00 in0.0 mm 0.15 in3.8 mm
07:57 PM 41.2°F5.1°C 32.5°F0.3°C 71% 7.0 mph NNW11.3 kmh NNW 14.0 mph22.5 kmh 29.71 in1006.1 mb 0.00 in0.0 mm 0.00 in0.0 mm 0.15 in3.8 mm
08:00 PM 41.0°F5.0°C 32.7°F0.4°C 72% 7.0 mph NNW11.3 kmh NNW 14.0 mph22.5 kmh 29.71 in1006.1 mb 0.00 in0.0 mm 0.00 in0.0 mm 0.15 in3.8 mm
08:03 PM 40.8°F4.9°C 32.5°F0.3°C 72% 7.0 mph NNW11.3 kmh NNW 14.0 mph22.5 kmh 29.71 in1006.1 mb 0.00 in0.0 mm 0.00 in0.0 mm 0.15 in3.8 mm
08:06 PM 40.6°F4.8°C 32.4°F0.2°C 72% 6.0 mph NNW9.7 kmh NNW 11.0 mph17.7 kmh 29.71 in1006.1 mb 0.00 in0.0 mm 0.00 in0.0 mm 0.15 in3.8 mm
08:09 PM 40.5°F4.7°C 32.4°F0.2°C 73% 5.0 mph NNW8.0 kmh NNW 10.0 mph16.1 kmh 29.72 in1006.4 mb 0.00 in0.0 mm 0.00 in0.0 mm 0.15 in3.8 mm
08:12 PM 40.3°F4.6°C 32.4°F0.2°C 73% 5.0 mph NNW8.0 kmh NNW 11.0 mph17.7 kmh 29.72 in1006.4 mb 0.00 in0.0 mm 0.00 in0.0 mm 0.15 in3.8 mm
08:15 PM 40.1°F4.5°C 32.2°F0.1°C 73% 6.0 mph NNW9.7 kmh NNW 11.0 mph17.7 kmh 29.72 in1006.4 mb 0.00 in0.0 mm 0.00 in0.0 mm 0.15 in3.8 mm
08:18 PM 39.9°F4.4°C 32.0°F0.0°C 73% 7.0 mph NNW11.3 kmh NNW 11.0 mph17.7 kmh 29.72 in1006.4 mb 0.00 in0.0 mm 0.00 in0.0 mm 0.15 in3.8 mm
08:21 PM 39.7°F4.3°C 32.2°F0.1°C 74% 7.0 mph NNW11.3 kmh NNW 11.0 mph17.7 kmh 29.72 in1006.4 mb 0.00 in0.0 mm 0.00 in0.0 mm 0.15 in3.8 mm
08:24 PM 39.7°F4.3°C 32.0°F0.0°C 74% 7.0 mph NNW11.3 kmh NNW 11.0 mph17.7 kmh 29.73 in1006.8 mb 0.00 in0.0 mm 0.00 in0.0 mm 0.15 in3.8 mm
08:27 PM 39.6°F4.2°C 32.0°F0.0°C 74% 7.0 mph NNW11.3 kmh NNW 14.0 mph22.5 kmh 29.72 in1006.4 mb 0.00 in0.0 mm 0.00 in0.0 mm 0.15 in3.8 mm
08:30 PM 39.4°F4.1°C 31.8°F-0.1°C 74% 7.0 mph NNW11.3 kmh NNW 14.0 mph22.5 kmh 29.73 in1006.8 mb 0.00 in0.0 mm 0.00 in0.0 mm 0.15 in3.8 mm
08:33 PM 39.4°F4.1°C 32.2°F0.1°C 75% 7.0 mph NNW11.3 kmh NNW 14.0 mph22.5 kmh 29.73 in1006.8 mb 0.00 in0.0 mm 0.00 in0.0 mm 0.15 in3.8 mm
08:36 PM 39.4°F4.1°C 31.8°F-0.1°C 74% 7.0 mph NNW11.3 kmh NNW 14.0 mph22.5 kmh 29.73 in1006.8 mb 0.00 in0.0 mm 0.00 in0.0 mm 0.15 in3.8 mm
08:39 PM 39.4°F4.1°C 31.6°F-0.2°C 74% 6.0 mph NNW9.7 kmh NNW 11.0 mph17.7 kmh 29.73 in1006.8 mb 0.00 in0.0 mm 0.00 in0.0 mm 0.15 in3.8 mm
08:42 PM 39.0°F3.9°C 31.8°F-0.1°C 75% 6.0 mph NNW9.7 kmh NNW 11.0 mph17.7 kmh 29.73 in1006.8 mb 0.00 in0.0 mm 0.00 in0.0 mm 0.15 in3.8 mm
08:45 PM 39.0°F3.9°C 31.8°F-0.1°C 75% 6.0 mph NNW9.7 kmh NNW 11.0 mph17.7 kmh 29.74 in1007.1 mb 0.00 in0.0 mm 0.00 in0.0 mm 0.15 in3.8 mm
08:48 PM 38.8°F3.8°C 31.6°F-0.2°C 75% 7.0 mph NNW11.3 kmh NNW 11.0 mph17.7 kmh 29.74 in1007.1 mb 0.00 in0.0 mm 0.00 in0.0 mm 0.15 in3.8 mm
08:51 PM 38.8°F3.8°C 31.6°F-0.2°C 75% 7.0 mph NNW11.3 kmh NNW 11.0 mph17.7 kmh 29.74 in1007.1 mb 0.00 in0.0 mm 0.00 in0.0 mm 0.15 in3.8 mm
08:54 PM 38.7°F3.7°C 31.5°F-0.3°C 75% 7.0 mph NNW11.3 kmh NNW 11.0 mph17.7 kmh 29.74 in1007.1 mb 0.00 in0.0 mm 0.00 in0.0 mm 0.15 in3.8 mm
08:57 PM 38.7°F3.7°C 31.6°F-0.2°C 76% 6.0 mph NNW9.7 kmh NNW 11.0 mph17.7 kmh 29.75 in1007.5 mb 0.00 in0.0 mm 0.00 in0.0 mm 0.15 in3.8 mm
09:00 PM 38.5°F3.6°C 31.6°F-0.2°C 76% 6.0 mph NNW9.7 kmh NNW 10.0 mph16.1 kmh 29.75 in1007.5 mb 0.00 in0.0 mm 0.00 in0.0 mm 0.15 in3.8 mm
09:03 PM 38.3°F3.5°C 31.5°F-0.3°C 76% 6.0 mph NNW9.7 kmh NNW 11.0 mph17.7 kmh 29.75 in1007.5 mb 0.00 in0.0 mm 0.00 in0.0 mm 0.15 in3.8 mm
09:06 PM 37.9°F3.3°C 31.1°F-0.5°C 76% 6.0 mph NNW9.7 kmh NNW 11.0 mph17.7 kmh 29.75 in1007.5 mb 0.00 in0.0 mm 0.00 in0.0 mm 0.15 in3.8 mm
09:09 PM 37.8°F3.2°C 30.9°F-0.6°C 76% 7.0 mph NNW11.3 kmh NNW 11.0 mph17.7 kmh 29.75 in1007.5 mb 0.00 in0.0 mm 0.00 in0.0 mm 0.15 in3.8 mm
09:12 PM 37.6°F3.1°C 31.1°F-0.5°C 77% 6.0 mph NNW9.7 kmh NNW 11.0 mph17.7 kmh 29.75 in1007.5 mb 0.00 in0.0 mm 0.00 in0.0 mm 0.15 in3.8 mm
09:15 PM 37.6°F3.1°C 30.9°F-0.6°C 77% 7.0 mph NNW11.3 kmh NNW 11.0 mph17.7 kmh 29.76 in1007.8 mb 0.00 in0.0 mm 0.00 in0.0 mm 0.15 in3.8 mm
09:18 PM 37.4°F3.0°C 30.9°F-0.6°C 77% 7.0 mph NNW11.3 kmh NNW 11.0 mph17.7 kmh 29.76 in1007.8 mb 0.00 in0.0 mm 0.00 in0.0 mm 0.15 in3.8 mm
09:21 PM 37.2°F2.9°C 31.1°F-0.5°C 78% 6.0 mph NNW9.7 kmh NNW 11.0 mph17.7 kmh 29.76 in1007.8 mb 0.00 in0.0 mm 0.00 in0.0 mm 0.15 in3.8 mm
09:24 PM 37.2°F2.9°C 30.9°F-0.6°C 78% 6.0 mph NNW9.7 kmh NNW 10.0 mph16.1 kmh 29.76 in1007.8 mb 0.00 in0.0 mm 0.00 in0.0 mm 0.15 in3.8 mm
09:27 PM 37.0°F2.8°C 30.9°F-0.6°C 78% 5.0 mph NNW8.0 kmh NNW 10.0 mph16.1 kmh 29.77 in1008.1 mb 0.00 in0.0 mm 0.00 in0.0 mm 0.15 in3.8 mm
09:30 PM 37.0°F2.8°C 30.4°F-0.9°C 77% 6.0 mph NNW9.7 kmh NNW 10.0 mph16.1 kmh 29.77 in1008.1 mb 0.00 in0.0 mm 0.00 in0.0 mm 0.15 in3.8 mm
09:33 PM 36.9°F2.7°C 30.2°F-1.0°C 77% 5.0 mph NW8.0 kmh NW 10.0 mph16.1 kmh 29.77 in1008.1 mb 0.00 in0.0 mm 0.00 in0.0 mm 0.15 in3.8 mm
09:36 PM 36.7°F2.6°C 30.6°F-0.8°C 78% 5.0 mph NW8.0 kmh NW 10.0 mph16.1 kmh 29.77 in1008.1 mb 0.00 in0.0 mm 0.00 in0.0 mm 0.15 in3.8 mm
09:39 PM 36.5°F2.5°C 30.4°F-0.9°C 78% 5.0 mph NW8.0 kmh NW 10.0 mph16.1 kmh 29.77 in1008.1 mb 0.00 in0.0 mm 0.00 in0.0 mm 0.15 in3.8 mm
09:42 PM 36.3°F2.4°C 30.2°F-1.0°C 78% 5.0 mph NW8.0 kmh NW 10.0 mph16.1 kmh 29.77 in1008.1 mb 0.00 in0.0 mm 0.00 in0.0 mm 0.15 in3.8 mm
09:45 PM 36.3°F2.4°C 30.0°F-1.1°C 78% 5.0 mph NNW8.0 kmh NNW 10.0 mph16.1 kmh 29.77 in1008.1 mb 0.00 in0.0 mm 0.00 in0.0 mm 0.15 in3.8 mm
09:48 PM 36.1°F2.3°C 29.8°F-1.2°C 78% 5.0 mph NNW8.0 kmh NNW 10.0 mph16.1 kmh 29.77 in1008.1 mb 0.00 in0.0 mm 0.00 in0.0 mm 0.15 in3.8 mm
09:51 PM 36.0°F2.2°C 29.7°F-1.3°C 78% 5.0 mph NNW8.0 kmh NNW 9.0 mph14.5 kmh 29.77 in1008.1 mb 0.00 in0.0 mm 0.00 in0.0 mm 0.15 in3.8 mm
09:54 PM 35.8°F2.1°C 29.7°F-1.3°C 78% 5.0 mph NNW8.0 kmh NNW 9.0 mph14.5 kmh 29.78 in1008.5 mb 0.00 in0.0 mm 0.00 in0.0 mm 0.15 in3.8 mm
09:57 PM 35.6°F2.0°C 29.5°F-1.4°C 78% 5.0 mph NNW8.0 kmh NNW 9.0 mph14.5 kmh 29.78 in1008.5 mb 0.00 in0.0 mm 0.00 in0.0 mm 0.15 in3.8 mm
10:00 PM 35.4°F1.9°C 29.3°F-1.5°C 78% 5.0 mph NNW8.0 kmh NNW 9.0 mph14.5 kmh 29.78 in1008.5 mb 0.00 in0.0 mm 0.00 in0.0 mm 0.15 in3.8 mm
10:03 PM 35.2°F1.8°C 29.1°F-1.6°C 78% 5.0 mph NNW8.0 kmh NNW 9.0 mph14.5 kmh 29.78 in1008.5 mb 0.00 in0.0 mm 0.00 in0.0 mm 0.15 in3.8 mm
10:06 PM 35.1°F1.7°C 28.9°F-1.7°C 78% 5.0 mph NNW8.0 kmh NNW 9.0 mph14.5 kmh 29.78 in1008.5 mb 0.00 in0.0 mm 0.00 in0.0 mm 0.15 in3.8 mm
10:09 PM 35.1°F1.7°C 28.8°F-1.8°C 78% 5.0 mph NW8.0 kmh NW 9.0 mph14.5 kmh 29.78 in1008.5 mb 0.00 in0.0 mm 0.00 in0.0 mm 0.15 in3.8 mm
10:12 PM 34.9°F1.6°C 28.6°F-1.9°C 78% 5.0 mph NNW8.0 kmh NNW 10.0 mph16.1 kmh 29.78 in1008.5 mb 0.00 in0.0 mm 0.00 in0.0 mm 0.15 in3.8 mm
10:15 PM 34.5°F1.4°C 28.4°F-2.0°C 78% 5.0 mph NNW8.0 kmh NNW 11.0 mph17.7 kmh 29.78 in1008.5 mb 0.00 in0.0 mm 0.00 in0.0 mm 0.15 in3.8 mm
10:18 PM 34.5°F1.4°C 28.6°F-1.9°C 79% 6.0 mph NNW9.7 kmh NNW 11.0 mph17.7 kmh 29.78 in1008.5 mb 0.00 in0.0 mm 0.00 in0.0 mm 0.15 in3.8 mm
10:21 PM 34.3°F1.3°C 28.6°F-1.9°C 79% 7.0 mph NNW11.3 kmh NNW 11.0 mph17.7 kmh 29.78 in1008.5 mb 0.00 in0.0 mm 0.00 in0.0 mm 0.15 in3.8 mm
10:24 PM 34.3°F1.3°C 28.6°F-1.9°C 79% 7.0 mph NNW11.3 kmh NNW 11.0 mph17.7 kmh 29.79 in1008.8 mb 0.00 in0.0 mm 0.00 in0.0 mm 0.15 in3.8 mm
10:27 PM 34.3°F1.3°C 28.6°F-1.9°C 79% 6.0 mph NNW9.7 kmh NNW 10.0 mph16.1 kmh 29.79 in1008.8 mb 0.00 in0.0 mm 0.00 in0.0 mm 0.15 in3.8 mm
10:30 PM 34.3°F1.3°C 28.4°F-2.0°C 79% 7.0 mph NNW11.3 kmh NNW 11.0 mph17.7 kmh 29.79 in1008.8 mb 0.00 in0.0 mm 0.00 in0.0 mm 0.15 in3.8 mm
10:33 PM 34.3°F1.3°C 28.8°F-1.8°C 80% 6.0 mph NNW9.7 kmh NNW 11.0 mph17.7 kmh 29.79 in1008.8 mb 0.00 in0.0 mm 0.00 in0.0 mm 0.15 in3.8 mm
10:36 PM 34.3°F1.3°C 28.8°F-1.8°C 80% 6.0 mph NNW9.7 kmh NNW 11.0 mph17.7 kmh 29.79 in1008.8 mb 0.00 in0.0 mm 0.00 in0.0 mm 0.15 in3.8 mm
10:39 PM 34.2°F1.2°C 28.8°F-1.8°C 80% 6.0 mph NNW9.7 kmh NNW 10.0 mph16.1 kmh 29.80 in1009.1 mb 0.00 in0.0 mm 0.00 in0.0 mm 0.15 in3.8 mm
10:42 PM 34.2°F1.2°C 28.8°F-1.8°C 80% 5.0 mph NNW8.0 kmh NNW 10.0 mph16.1 kmh 29.80 in1009.1 mb 0.00 in0.0 mm 0.00 in0.0 mm 0.15 in3.8 mm
10:45 PM 34.2°F1.2°C 28.8°F-1.8°C 80% 4.0 mph NW6.4 kmh NW 10.0 mph16.1 kmh 29.80 in1009.1 mb 0.00 in0.0 mm 0.00 in0.0 mm 0.15 in3.8 mm
10:48 PM 34.3°F1.3°C 29.1°F-1.6°C 81% 3.0 mph NW4.8 kmh NW 8.0 mph12.9 kmh 29.80 in1009.1 mb 0.00 in0.0 mm 0.00 in0.0 mm 0.15 in3.8 mm
10:51 PM 34.5°F1.4°C 29.3°F-1.5°C 81% 3.0 mph NW4.8 kmh NW 8.0 mph12.9 kmh 29.80 in1009.1 mb 0.00 in0.0 mm 0.00 in0.0 mm 0.15 in3.8 mm
10:54 PM 34.5°F1.4°C 29.3°F-1.5°C 81% 4.0 mph NW6.4 kmh NW 10.0 mph16.1 kmh 29.80 in1009.1 mb 0.00 in0.0 mm 0.00 in0.0 mm 0.15 in3.8 mm
10:57 PM 34.7°F1.5°C 29.1°F-1.6°C 80% 5.0 mph NNW8.0 kmh NNW 10.0 mph16.1 kmh 29.80 in1009.1 mb 0.00 in0.0 mm 0.00 in0.0 mm 0.15 in3.8 mm
11:00 PM 35.1°F1.7°C 29.5°F-1.4°C 80% 6.0 mph NNW9.7 kmh NNW 10.0 mph16.1 kmh 29.80 in1009.1 mb 0.00 in0.0 mm 0.00 in0.0 mm 0.15 in3.8 mm
11:03 PM 35.4°F1.9°C 29.5°F-1.4°C 79% 7.0 mph NNW11.3 kmh NNW 10.0 mph16.1 kmh 29.80 in1009.1 mb 0.00 in0.0 mm 0.00 in0.0 mm 0.15 in3.8 mm
11:06 PM 35.4°F1.9°C 29.7°F-1.3°C 79% 8.0 mph NNW12.9 kmh NNW 11.0 mph17.7 kmh 29.80 in1009.1 mb 0.00 in0.0 mm 0.00 in0.0 mm 0.15 in3.8 mm
11:09 PM 35.6°F2.0°C 29.7°F-1.3°C 79% 8.0 mph NNW12.9 kmh NNW 11.0 mph17.7 kmh 29.80 in1009.1 mb 0.00 in0.0 mm 0.00 in0.0 mm 0.15 in3.8 mm
11:12 PM 35.4°F1.9°C 29.3°F-1.5°C 78% 8.0 mph NNW12.9 kmh NNW 11.0 mph17.7 kmh 29.80 in1009.1 mb 0.00 in0.0 mm 0.00 in0.0 mm 0.15 in3.8 mm
11:15 PM 35.4°F1.9°C 29.7°F-1.3°C 79% 8.0 mph NNW12.9 kmh NNW 11.0 mph17.7 kmh 29.81 in1009.5 mb 0.00 in0.0 mm 0.00 in0.0 mm 0.15 in3.8 mm
11:18 PM 35.6°F2.0°C 29.7°F-1.3°C 79% 8.0 mph NNW12.9 kmh NNW 11.0 mph17.7 kmh 29.81 in1009.5 mb 0.00 in0.0 mm 0.00 in0.0 mm 0.15 in3.8 mm
11:21 PM 35.6°F2.0°C 29.5°F-1.4°C 78% 8.0 mph NNW12.9 kmh NNW 11.0 mph17.7 kmh 29.81 in1009.5 mb 0.00 in0.0 mm 0.00 in0.0 mm 0.15 in3.8 mm
11:24 PM 35.8°F2.1°C 29.5°F-1.4°C 78% 8.0 mph NNW12.9 kmh NNW 11.0 mph17.7 kmh 29.81 in1009.5 mb 0.00 in0.0 mm 0.00 in0.0 mm 0.15 in3.8 mm
11:27 PM 35.8°F2.1°C 29.5°F-1.4°C 78% 8.0 mph NNW12.9 kmh NNW 11.0 mph17.7 kmh 29.81 in1009.5 mb 0.00 in0.0 mm 0.00 in0.0 mm 0.15 in3.8 mm
11:30 PM 35.8°F2.1°C 29.7°F-1.3°C 78% 8.0 mph NNW12.9 kmh NNW 10.0 mph16.1 kmh 29.81 in1009.5 mb 0.00 in0.0 mm 0.00 in0.0 mm 0.15 in3.8 mm
11:33 PM 35.8°F2.1°C 29.7°F-1.3°C 78% 8.0 mph NNW12.9 kmh NNW 11.0 mph17.7 kmh 29.81 in1009.5 mb 0.00 in0.0 mm 0.00 in0.0 mm 0.15 in3.8 mm
11:36 PM 35.8°F2.1°C 29.7°F-1.3°C 78% 9.0 mph NNW14.5 kmh NNW 11.0 mph17.7 kmh 29.81 in1009.5 mb 0.00 in0.0 mm 0.00 in0.0 mm 0.15 in3.8 mm
11:39 PM 35.8°F2.1°C 29.3°F-1.5°C 77% 9.0 mph NNW14.5 kmh NNW 11.0 mph17.7 kmh 29.81 in1009.5 mb 0.00 in0.0 mm 0.00 in0.0 mm 0.15 in3.8 mm
11:42 PM 35.8°F2.1°C 29.1°F-1.6°C 77% 9.0 mph NNW14.5 kmh NNW 11.0 mph17.7 kmh 29.81 in1009.5 mb 0.00 in0.0 mm 0.00 in0.0 mm 0.15 in3.8 mm
11:45 PM 35.8°F2.1°C 29.1°F-1.6°C 77% 9.0 mph NNW14.5 kmh NNW 11.0 mph17.7 kmh 29.82 in1009.8 mb 0.00 in0.0 mm 0.00 in0.0 mm 0.15 in3.8 mm
11:48 PM 35.6°F2.0°C 29.1°F-1.6°C 77% 8.0 mph NNW12.9 kmh NNW 11.0 mph17.7 kmh 29.82 in1009.8 mb 0.00 in0.0 mm 0.00 in0.0 mm 0.15 in3.8 mm
11:51 PM 35.4°F1.9°C 28.9°F-1.7°C 77% 8.0 mph NNW12.9 kmh NNW 11.0 mph17.7 kmh 29.82 in1009.8 mb 0.00 in0.0 mm 0.00 in0.0 mm 0.15 in3.8 mm
11:54 PM 35.4°F1.9°C 29.3°F-1.5°C 78% 7.0 mph NNW11.3 kmh NNW 10.0 mph16.1 kmh 29.82 in1009.8 mb 0.00 in0.0 mm 0.00 in0.0 mm 0.15 in3.8 mm
11:57 PM 35.2°F1.8°C 29.1°F-1.6°C 78% 7.0 mph NNW11.3 kmh NNW 10.0 mph16.1 kmh 29.82 in1009.8 mb 0.00 in0.0 mm 0.00 in0.0 mm 0.15 in3.8 mm